GFSSW_850_temp_072.txt.gz
Temp
14 14 14 14 15 15 16 16 17 17 17 17 17 17 18 18 18 19 20 21 20 20 20 20 19 18 17 17 18 19 19 19 22 21 20 20 19 18 19 20 21 20 19 17 16
13 13 14 14 14 15 15 16 16 17 17 17 17 18 18 18 18 20 21 21 20 20 20 20 19 17 17 18 18 19 18 20 23 21 20 19 20 19 20 21 18 17 17 17 17
13 13 13 14 14 14 15 15 16 16 16 17 17 18 18 18 18 20 21 21 20 20 20 20 19 17 18 18 19 20 19 22 22 22 21 20 20 20 20 19 18 16 16 17 17
13 13 13 13 13 14 14 15 15 15 16 16 17 17 18 18 20 20 21 21 20 20 19 19 18 18 18 18 19 19 21 22 23 21 20 21 19 20 20 19 19 19 18 18 17
13 13 13 13 13 14 14 15 15 15 15 16 16 17 17 17 21 21 21 20 20 19 19 19 18 18 17 19 20 20 21 23 23 23 21 21 21 19 19 19 18 19 18 18 18
12 12 13 13 13 14 14 14 15 15 15 15 16 16 16 16 20 21 21 20 20 19 19 19 18 19 20 20 20 22 22 23 23 22 20 20 20 21 18 17 19 18 18 18 18
12 12 13 13 13 14 14 15 15 15 15 15 15 16 15 20 20 20 20 20 20 20 19 19 19 19 19 20 21 22 21 22 20 20 20 20 20 20 19 18 18 17 18 19 19
12 13 13 13 14 14 15 15 16 15 15 16 15 15 17 19 20 20 19 19 19 19 19 19 18 19 20 21 21 21 20 21 20 20 20 21 22 20 19 20 18 18 18 18 18
12 12 13 13 14 14 15 16 16 16 15 15 15 13 18 19 19 20 20 19 18 18 18 19 19 19 20 19 18 18 20 22 21 21 21 19 21 19 18 18 17 19 18 18 19
12 12 13 13 14 15 15 15 15 15 14 14 14 13 18 19 20 20 19 19 18 18 18 18 19 16 15 16 17 20 20 21 22 20 21 20 19 18 18 18 19 20 19 19 19
12 12 13 13 14 15 15 14 14 14 14 16 17 17 18 20 20 20 20 18 19 18 16 18 16 15 17 17 20 20 20 21 21 22 21 19 19 18 18 19 19 20 20 20 20
12 13 13 14 15 16 15 15 14 14 14 17 17 17 19 19 20 20 19 19 18 16 16 16 16 17 18 18 20 21 20 20 21 22 20 19 18 17 19 19 19 19 20 20 20
13 13 14 15 15 15 15 15 15 16 13 17 18 19 20 20 21 20 20 20 18 17 17 17 19 19 19 20 20 20 20 20 21 21 19 19 20 18 18 19 19 19 20 21 20
13 14 15 15 15 16 16 16 17 17 11 15 17 20 20 21 21 21 21 21 19 18 17 19 20 20 20 20 19 19 19 21 22 20 20 20 19 18 17 17 18 18 19 21 21
14 14 15 15 15 16 16 17 17 17 14 17 18 20 21 21 21 21 22 22 19 19 18 19 19 20 20 20 19 19 20 20 21 20 19 20 19 18 17 17 18 18 19 20 21
15 15 15 15 16 16 16 17 17 14 15 19 19 19 19 20 20 21 22 22 21 19 19 20 21 20 20 20 20 21 19 16 15 15 18 20 19 19 17 18 19 20 19 20 21
15 15 16 16 16 16 16 16 12 12 15 16 17 18 18 19 19 19 17 15 16 16 18 20 20 18 20 22 20 19 17 15 17 17 18 18 19 19 19 22 21 21 21 20 21
16 16 15 15 16 16 16 12 12 15 15 15 15 15 16 16 16 15 15 14 14 15 14 16 17 17 18 19 19 18 17 15 18 16 18 17 19 19 20 20 19 21 22 20 20
16 16 16 16 16 16 16 10 12 12 14 14 15 14 14 15 16 14 13 13 14 13 15 15 17 16 18 17 17 19 15 16 13 14 16 17 19 19 19 19 18 18 20 20 20
17 16 16 17 17 17 13 12 14 14 13 13 13 14 14 13 15 13 13 14 14 13 14 14 15 16 16 17 16 15 15 17 14 17 19 17 17 15 15 16 16 15 15 17 20
17 17 16 17 17 17 10 13 14 14 14 13 12 13 12 13 13 12 11 15 12 14 12 12 13 16 13 12 11 12 12 11 11 12 15 15 15 15 14 14 14 14 14 15 19
16 11 15 17 13 8 8 12 12 12 12 13 12 11 11 10 11 12 12 12 12 13 13 11 8 9 12 12 12 12 12 9 13 15 10 12 14 12 13 14 13 13 14 14 17
15 15 15 17 10 7 10 11 11 11 10 10 11 10 9 8 10 10 12 13 12 13 13 13 8 9 13 12 11 11 11 10 7 8 10 13 14 13 13 13 12 12 13 13 14
14 8 14 13 9 9 9 9 10 11 10 10 8 9 9 7 6 8 10 12 11 11 12 12 8 10 10 11 10 11 12 12 9 10 10 12 13 11 12 12 11 11 12 12 13
13 8 9 6 7 6 7 8 9 8 9 9 9 8 8 7 7 7 8 8 11 10 10 8 8 9 9 11 11 11 12 12 13 12 12 11 14 10 11 11 10 10 10 11 11
12 11 10 7 8 7 5 7 8 8 8 8 8 8 7 6 8 8 8 8 8 8 7 6 7 9 9 10 11 11 11 11 12 13 11 12 11 9 10 10 10 9 9 9 10
12 12 12 7 6 6 6 8 8 9 10 9 9 7 7 8 9 9 9 8 8 8 6 6 5 6 8 7 10 9 10 11 11 10 10 11 9 8 9 9 8 9 10 10 10

GFSSW_850_temp_075.txt.gz
Temp
14 14 14 14 15 15 15 15 16 16 16 16 17 17 18 18 18 19 20 21 20 19 19 20 19 18 17 18 18 19 20 21 23 22 20 19 18 17 19 20 21 20 18 17 15
13 13 14 14 14 14 15 15 16 16 16 16 17 17 18 18 18 20 21 21 20 20 19 20 18 17 18 18 19 20 21 22 23 23 21 19 18 18 20 20 18 18 17 16 16
13 13 13 14 14 14 14 15 15 16 16 16 16 17 17 18 18 20 20 21 20 20 20 20 19 18 19 19 20 20 22 23 24 22 21 19 18 19 21 21 19 17 16 16 16
12 13 13 13 13 14 14 15 15 16 16 16 15 17 17 17 21 20 21 21 20 20 19 19 18 19 20 21 20 20 22 22 23 22 22 21 20 20 20 19 19 17 16 16 16
12 12 13 13 13 13 14 14 15 16 16 16 16 16 17 17 20 20 21 20 19 19 19 18 19 19 21 21 21 21 23 23 23 22 22 21 21 20 18 18 17 17 16 16 16
12 12 13 13 13 13 14 14 15 16 16 16 16 16 16 17 20 20 20 20 19 18 18 18 19 19 21 21 22 22 23 24 23 24 22 23 21 20 18 18 17 17 17 17 17
12 12 13 13 13 14 14 14 15 16 16 15 16 16 16 19 19 20 19 20 19 19 18 18 19 20 20 22 21 23 24 24 22 22 22 22 20 22 19 18 18 18 18 18 18
12 12 13 13 13 14 14 15 15 15 16 16 15 15 17 18 19 19 19 18 18 18 19 19 19 19 20 20 22 24 24 25 23 23 21 22 22 21 18 18 18 18 18 18 18
12 12 13 13 13 14 14 15 15 15 15 15 16 15 17 17 18 19 18 18 18 18 18 18 18 20 21 22 23 24 25 25 23 23 23 22 23 20 19 19 18 18 18 19 19
13 13 13 13 14 14 14 14 14 14 14 14 14 15 17 18 18 19 18 18 17 17 18 18 19 21 21 22 23 24 24 24 24 23 23 23 23 20 19 19 19 19 19 19 19
13 13 14 14 14 15 15 14 14 13 14 16 16 16 18 18 18 18 18 17 17 18 20 19 20 20 22 22 23 24 24 25 24 24 24 24 24 22 20 19 20 20 20 20 19
13 14 14 14 15 15 15 14 14 14 15 16 16 16 18 18 18 17 17 19 18 19 19 19 20 21 22 22 22 23 24 24 24 24 24 23 22 22 21 20 20 20 20 20 20
14 14 14 14 15 15 15 14 15 15 14 16 17 17 19 19 19 17 18 19 20 19 20 21 22 21 22 22 22 23 24 24 25 24 22 23 21 21 20 20 20 20 21 21 21
14 14 15 15 15 15 15 15 16 16 17 18 17 19 19 20 21 19 19 20 20 20 20 21 21 21 21 22 23 23 23 24 24 24 25 23 25 22 21 21 21 20 21 21 21
14 14 14 15 15 15 15 16 16 16 16 18 19 19 20 21 20 19 19 20 21 21 20 21 21 21 22 23 23 23 23 24 24 24 24 23 26 23 21 21 21 20 20 21 21
15 15 15 15 16 15 16 16 16 16 16 19 20 20 21 21 20 20 21 21 20 22 21 22 21 23 23 23 24 23 23 22 22 24 25 25 25 23 23 22 22 21 19 20 21
16 15 15 15 15 16 16 16 16 15 18 17 18 20 21 20 20 21 20 19 21 20 21 21 21 21 21 23 22 23 24 23 23 24 25 22 25 22 21 20 20 20 21 20 21
16 16 16 16 16 16 16 17 15 15 16 17 17 19 19 19 17 18 18 19 18 19 21 21 20 20 20 21 23 23 24 24 23 23 25 21 24 21 21 19 18 18 20 22 21
16 16 15 16 16 16 16 15 13 14 15 15 17 19 18 18 19 18 16 17 16 17 21 20 19 19 19 19 20 21 22 22 22 19 25 23 23 22 20 19 16 16 16 17 21
17 17 16 17 17 17 16 14 15 14 14 15 16 16 17 17 18 18 16 16 16 16 16 18 19 17 18 19 19 21 19 23 23 22 23 21 21 21 17 15 15 15 15 15 17
17 17 16 17 17 16 14 14 15 14 14 15 14 15 14 16 16 15 14 15 14 16 16 17 20 18 18 16 16 20 20 19 22 21 24 22 21 17 14 14 14 14 14 14 17
16 16 15 17 16 11 13 13 12 13 11 14 14 13 13 13 14 14 14 13 12 15 16 14 17 16 16 16 15 16 16 17 24 20 19 23 19 16 15 13 13 13 13 13 14
15 14 14 16 15 13 12 13 12 13 12 12 12 12 11 11 13 13 14 13 12 14 14 16 15 17 17 17 16 16 16 15 16 18 18 23 19 16 15 14 12 12 12 12 12
14 14 13 12 9 12 12 11 12 11 11 11 11 12 13 12 12 11 12 13 12 13 12 14 14 16 19 16 15 16 15 16 17 20 17 18 17 15 15 14 13 12 12 11 11
13 10 9 11 11 10 11 10 11 11 11 10 11 10 11 13 12 11 11 13 13 11 12 14 13 13 14 14 15 14 15 16 17 16 18 17 17 14 13 13 12 12 12 11 11
12 11 9 8 7 11 9 10 10 10 10 10 10 10 11 11 10 11 11 11 11 12 12 12 12 13 12 13 13 14 14 15 15 15 16 16 15 13 12 12 12 11 11 11 11
12 11 11 7 9 11 10 10 10 10 10 9 10 10 10 10 9 9 9 9 10 11 11 11 12 12 12 12 13 14 14 14 15 14 16 16 15 12 12 12 11 10 10 10 10

GFSSW_850_temp_078.txt.gz
Temp
13 14 14 14 14 14 15 15 16 16 16 17 17 17 18 18 18 19 19 19 20 20 18 18 18 19 20 22 22 22 23 24 24 23 22 19 19 18 18 19 21 22 22 20 19
13 13 14 14 14 14 14 15 16 16 16 16 17 17 18 18 19 19 20 20 20 20 18 19 20 20 22 23 23 23 23 24 26 25 23 20 19 18 19 20 23 22 21 19 19
13 13 13 14 14 14 14 14 15 16 16 16 17 17 17 18 18 21 21 20 20 20 19 21 21 21 24 23 24 24 25 26 27 25 22 21 20 21 22 24 22 21 20 19 19
12 13 13 13 14 14 14 14 15 15 16 16 16 17 17 18 24 19 20 20 20 19 19 20 21 23 25 24 22 24 26 26 26 25 22 22 21 22 24 22 23 21 20 19 20
13 13 13 13 14 14 14 14 14 15 15 16 16 17 17 16 21 20 21 20 19 18 20 21 22 24 26 25 23 24 27 26 26 22 23 23 22 22 18 20 21 20 20 20 21
13 13 13 13 14 14 14 14 15 15 15 16 16 16 16 21 18 20 19 18 18 19 21 22 23 24 25 25 26 26 26 27 27 26 25 25 24 22 20 20 19 19 20 20 21
12 12 13 13 14 14 14 15 15 16 16 15 16 15 15 20 17 17 17 18 18 20 21 22 22 23 25 26 25 26 27 28 27 27 27 26 24 24 20 20 19 20 20 20 21
12 12 13 13 13 14 15 15 16 16 16 15 15 14 19 19 17 17 18 18 18 20 21 21 21 23 24 24 25 27 28 29 27 27 26 26 25 24 20 20 20 22 21 21 21
12 12 13 13 13 14 15 15 16 16 16 15 14 12 21 18 17 18 18 18 19 19 20 20 21 24 24 26 27 28 29 29 27 27 27 27 25 21 21 21 22 23 22 22 22
12 13 13 13 14 15 15 15 15 15 15 15 13 14 17 19 18 18 19 19 19 20 20 21 23 25 26 27 28 28 29 29 28 27 28 27 26 24 19 19 20 21 21 23 22
13 14 14 14 15 15 15 15 14 14 13 19 20 19 20 19 18 18 18 19 20 21 23 22 24 25 27 28 28 29 29 29 28 28 28 28 28 24 21 20 18 19 20 23 23
14 14 14 15 15 15 15 15 15 14 18 18 17 17 18 19 20 19 19 20 21 22 24 23 24 27 28 27 26 28 29 29 28 28 28 28 28 27 21 23 22 21 22 22 23
15 15 15 15 15 15 15 15 15 14 18 20 18 19 19 19 21 20 20 21 22 23 24 24 26 26 26 25 26 28 28 28 29 28 28 28 26 25 26 21 24 23 23 23 24
15 15 15 15 15 15 15 16 16 16 20 21 20 20 19 21 22 20 20 22 23 24 24 25 26 25 25 26 27 27 28 28 28 28 29 29 26 26 26 23 21 23 24 24 24
15 15 15 15 15 15 15 16 16 15 19 21 21 20 21 22 22 21 21 22 23 24 24 25 25 24 25 26 27 28 28 27 28 28 28 28 29 26 26 25 22 22 22 23 24
15 15 15 15 16 15 16 16 16 19 18 21 22 22 22 23 23 21 21 22 24 24 24 26 25 26 26 27 26 27 26 27 28 29 27 30 30 27 26 25 26 23 24 23 23
16 16 16 16 16 16 16 15 19 18 21 20 21 23 23 23 23 23 22 23 23 22 23 24 25 25 25 26 26 26 27 26 26 27 28 30 29 25 24 23 23 21 22 24 24
16 16 16 16 16 16 15 20 17 18 18 20 20 22 22 23 23 23 23 22 23 24 25 24 22 24 24 26 26 26 28 28 25 27 29 28 27 23 23 21 20 20 21 24 24
17 17 16 15 16 16 18 20 17 17 17 18 19 21 21 22 22 23 22 22 21 22 24 24 22 23 23 24 25 26 27 30 29 30 30 28 24 24 23 21 19 17 17 18 24
17 16 16 17 17 17 21 17 18 17 16 19 18 20 21 21 22 22 21 20 21 21 22 24 22 23 22 23 24 26 28 26 28 26 27 27 25 25 20 18 17 15 14 16 21
17 18 16 17 17 19 19 18 17 16 16 18 17 20 20 20 22 21 20 19 19 21 22 24 24 22 23 23 24 25 26 26 29 28 28 26 26 20 17 16 15 14 13 14 15
17 20 16 17 20 19 18 17 15 16 16 18 18 17 18 19 18 18 18 17 16 19 22 22 25 23 22 20 20 22 24 25 27 26 28 29 22 20 19 15 15 13 13 13 13
17 17 16 17 20 18 17 16 15 17 15 16 16 17 16 16 16 17 17 15 16 19 20 21 23 21 21 21 21 22 22 23 24 26 27 27 21 21 19 17 15 14 13 12 12
17 19 17 16 15 18 17 16 16 14 15 15 16 17 18 17 18 15 17 16 16 17 14 18 21 22 23 22 23 21 21 22 24 26 26 26 20 20 19 19 17 16 14 13 12
15 16 13 17 16 17 16 16 15 15 15 15 16 16 18 17 17 16 16 16 17 15 17 21 19 20 20 20 21 21 21 21 22 22 24 23 21 20 19 18 17 16 16 15 14
16 16 14 14 13 16 15 15 15 15 15 15 15 16 17 16 17 16 17 17 15 17 17 18 17 19 18 18 19 20 20 19 20 21 22 22 19 19 17 16 16 15 15 14 14
12 12 15 12 15 17 15 14 14 14 13 13 14 15 14 13 13 14 14 15 15 17 17 17 17 17 19 17 18 19 20 20 20 20 22 21 21 18 17 16 16 15 14 13 13

GFSSW_850_temp_081.txt.gz
Temp
13 14 14 14 14 15 15 15 15 16 17 17 17 18 18 18 19 19 18 20 19 21 20 21 22 22 23 24 24 25 24 25 26 26 21 22 21 19 20 23 25 25 25 23 22
13 13 14 14 14 14 15 15 15 16 16 17 17 18 18 18 19 17 19 20 20 21 20 22 23 23 24 25 25 27 24 26 27 28 24 22 22 20 21 23 24 26 25 23 22
13 13 13 14 14 14 14 15 15 15 16 16 17 18 18 18 17 23 21 21 20 21 21 23 24 24 26 27 25 26 25 27 26 27 24 22 20 21 21 23 24 25 24 22 23
13 13 14 14 14 14 14 14 15 15 16 16 16 17 18 18 25 21 21 21 21 20 22 24 25 25 28 28 26 27 26 27 26 25 24 23 22 22 22 23 24 24 23 23 23
13 13 13 14 14 14 14 15 15 15 16 16 16 17 17 18 22 21 21 21 20 19 22 24 25 27 29 29 26 28 29 28 27 25 26 25 25 25 23 23 23 24 23 23 24
13 13 14 14 14 14 14 15 15 15 16 16 16 16 16 22 21 20 21 21 19 20 23 24 26 27 29 28 24 28 28 29 29 26 25 26 25 25 23 23 23 23 23 24 24
13 14 14 14 14 14 15 15 16 16 16 16 16 16 16 22 20 19 19 20 21 22 24 25 26 27 27 29 28 29 29 31 30 29 28 26 25 24 23 22 21 24 24 24 24
13 14 14 14 14 15 15 15 16 16 16 16 16 15 20 21 20 20 21 21 21 22 24 25 25 26 27 29 29 29 31 30 31 31 29 25 24 25 24 22 22 24 24 24 24
13 13 14 14 15 15 15 15 15 16 16 16 16 15 22 20 20 21 21 22 22 23 24 24 24 26 27 29 29 30 31 31 30 30 30 28 24 22 24 24 24 24 24 24 24
13 14 14 14 15 15 15 15 15 16 16 15 15 18 20 21 21 21 21 22 23 23 23 23 25 27 29 29 29 30 31 32 30 31 29 24 26 26 22 23 24 24 25 25 24
14 14 14 15 15 16 16 14 14 15 16 21 22 22 23 22 21 21 22 22 23 23 25 24 26 27 29 30 32 33 32 26 30 32 29 30 26 26 21 21 22 24 25 25 25
15 15 15 15 15 16 16 18 18 18 20 21 21 22 22 22 22 22 22 23 23 25 26 26 26 29 30 31 31 31 32 32 32 32 28 23 27 26 22 21 19 20 23 25 25
15 15 15 15 15 16 17 18 17 18 20 23 22 21 21 22 23 23 22 24 24 25 26 27 28 30 30 30 30 31 32 31 31 30 31 31 29 27 25 22 19 18 21 24 24
15 15 15 15 15 17 18 17 18 17 21 24 23 22 22 22 24 23 22 24 25 26 27 28 30 29 29 29 29 30 32 32 31 30 30 32 25 29 26 26 20 21 21 24 23
16 16 16 16 15 18 18 18 18 18 20 23 24 23 23 23 25 24 23 24 26 26 27 27 29 28 28 29 29 30 32 30 31 31 32 31 28 20 27 26 21 19 21 24 24
16 16 16 16 16 17 17 17 18 20 20 23 24 24 24 24 25 24 23 24 26 27 27 28 28 28 28 29 30 32 31 30 31 31 30 32 31 20 26 26 24 20 24 23 23
16 16 16 16 18 18 17 18 20 20 21 23 23 24 25 24 25 25 24 25 25 25 25 27 28 29 29 29 30 30 29 28 28 29 30 33 31 24 27 27 26 24 24 21 23
16 17 16 17 16 17 17 20 18 20 21 23 23 24 24 25 25 25 24 24 26 27 27 26 25 28 28 29 28 28 29 29 27 29 31 33 29 26 26 24 22 23 23 25 25
17 17 17 18 17 17 19 16 18 20 21 20 22 22 23 24 25 25 24 25 27 27 27 27 26 28 28 29 28 28 28 32 32 32 32 30 26 26 25 23 19 18 21 24 27
17 19 20 19 18 18 20 16 21 20 21 21 21 22 22 23 23 24 23 21 24 25 25 26 25 26 26 27 28 28 30 29 30 29 29 29 26 27 24 21 18 16 16 17 25
17 21 19 19 19 20 15 21 20 19 19 20 20 21 20 23 23 20 23 22 23 25 25 26 26 25 26 26 27 27 28 30 31 32 31 28 26 25 21 18 16 15 14 14 15
19 23 20 19 21 22 22 21 18 20 19 21 19 20 18 20 17 16 22 21 20 23 25 26 27 25 25 27 26 28 29 29 29 29 31 30 23 24 21 18 15 14 13 14 14
20 21 20 20 20 22 21 20 19 20 19 20 20 20 21 21 19 21 21 19 20 23 23 25 26 25 24 25 26 26 27 28 30 31 29 30 23 23 20 18 15 14 13 13 13
20 22 21 20 20 22 20 20 20 18 19 19 19 19 21 20 21 20 19 20 20 21 17 19 26 25 24 25 26 25 26 27 28 28 29 28 22 23 23 21 17 16 15 14 13
19 20 18 21 21 21 20 19 19 19 19 19 20 21 19 20 20 20 21 20 21 19 21 24 24 24 24 25 27 26 26 25 26 28 27 24 24 23 22 22 20 19 17 16 16
19 20 19 19 18 20 16 19 19 19 19 19 19 20 21 19 20 20 21 20 19 20 21 23 22 23 23 23 24 24 24 24 25 25 27 25 22 23 21 19 19 18 17 17 16
16 16 19 17 20 21 19 19 18 18 17 17 18 19 19 18 18 19 20 20 20 21 19 21 22 21 22 23 23 22 24 24 24 25 26 25 23 21 21 20 19 17 17 16 15

GFSSW_850_temp_084.txt.gz
Temp
14 14 14 14 14 14 15 15 15 16 17 17 17 17 18 18 19 19 19 20 21 21 21 21 21 22 23 24 24 23 22 24 23 25 22 23 22 20 23 26 25 26 25 25 25
14 14 14 14 14 14 15 15 15 15 16 17 17 17 18 18 19 19 21 21 20 21 20 22 23 24 24 25 25 19 24 25 27 26 24 24 23 20 24 26 26 26 25 24 25
14 14 14 14 14 14 14 15 15 15 16 16 17 17 17 18 16 22 23 22 22 21 20 24 25 25 26 26 26 23 26 27 26 26 24 23 22 21 25 26 26 26 25 25 25
13 14 14 14 14 14 15 15 15 15 16 16 17 17 17 18 24 22 22 22 22 22 20 24 26 26 28 28 27 21 28 28 27 26 24 23 21 22 22 23 26 25 25 25 25
13 13 14 14 14 14 15 15 15 15 16 16 17 17 17 17 22 22 22 22 22 22 21 25 26 27 29 28 27 24 28 29 26 26 25 25 24 22 20 20 25 25 25 25 25
14 14 14 14 14 15 15 15 16 15 16 16 16 17 17 20 23 22 22 22 21 20 22 25 27 28 30 30 29 28 29 29 28 26 26 27 23 23 20 21 24 25 25 25 25
14 14 14 14 14 15 15 15 16 16 16 16 16 17 16 21 23 21 20 21 21 21 23 25 27 28 29 30 28 28 27 29 29 28 28 26 25 24 24 22 24 25 25 25 26
14 14 15 15 15 15 15 16 16 16 16 16 16 16 18 23 22 22 21 21 22 22 24 26 27 28 29 30 29 29 29 29 30 29 28 26 23 24 23 24 25 25 25 26 26
14 15 15 15 15 16 16 16 16 16 17 17 16 16 21 22 22 23 23 23 23 24 25 26 26 27 28 29 30 31 29 29 30 30 29 28 21 20 24 24 25 25 25 26 26
15 15 15 16 16 16 17 16 16 16 16 16 16 18 20 23 23 23 23 24 24 24 25 26 26 27 28 29 28 30 30 29 30 31 29 27 24 22 24 24 24 24 25 26 26
15 15 15 16 17 17 17 16 15 14 15 20 22 22 25 24 23 23 24 24 24 25 26 26 25 26 28 29 31 32 32 27 27 25 29 28 24 24 24 25 25 24 25 26 26
15 15 16 16 16 17 17 15 20 20 21 20 21 23 24 24 24 24 24 24 25 25 26 26 25 29 30 30 31 31 31 30 28 28 22 26 24 24 25 25 23 25 25 26 26
15 15 16 16 16 17 18 19 19 20 21 23 23 23 24 24 24 24 24 25 26 26 26 26 28 29 30 30 30 31 32 30 29 24 20 20 23 18 24 23 20 22 21 25 26
16 15 16 16 16 18 19 20 20 20 21 25 25 24 24 24 25 25 24 25 26 26 27 27 30 29 30 30 31 31 33 29 30 28 24 21 24 22 24 23 21 20 19 22 26
16 16 16 16 17 19 20 20 20 20 20 25 26 25 24 24 25 25 24 25 26 26 27 27 28 29 29 30 32 31 33 31 32 32 32 32 30 23 22 21 20 17 20 21 21
16 16 16 16 17 18 19 20 20 21 21 25 26 25 25 25 25 26 25 24 26 27 28 28 30 30 30 31 32 32 32 32 31 32 30 31 30 23 22 19 21 21 19 19 18
16 17 17 17 18 19 19 20 21 20 21 23 25 25 25 25 25 26 25 24 25 24 25 28 29 30 31 30 31 31 30 29 28 29 29 33 32 23 19 21 19 23 19 17 16
17 17 17 18 17 19 19 21 18 18 17 24 24 25 24 25 25 26 25 24 26 27 27 26 26 29 30 29 29 30 30 30 27 28 30 32 30 23 20 20 24 26 21 20 21
17 17 18 18 19 19 20 17 16 17 23 23 23 23 24 25 26 26 25 25 26 27 26 27 27 30 30 30 31 30 29 32 31 31 31 29 25 25 24 22 21 21 21 21 19
17 18 19 20 20 20 17 11 13 20 22 23 21 22 21 22 22 25 25 25 25 24 27 27 26 29 30 30 30 29 31 29 30 28 29 28 25 26 24 21 19 18 17 16 15
17 19 22 21 21 19 11 13 20 21 21 22 21 21 20 18 19 21 19 24 23 23 26 27 24 25 28 27 27 28 28 30 31 31 30 27 23 26 23 21 18 16 15 15 15
18 21 22 21 22 20 18 15 21 22 21 21 21 19 20 21 17 16 15 16 22 23 24 26 24 22 26 28 29 29 29 29 28 28 31 23 22 24 22 18 17 15 14 15 15
18 23 22 22 20 12 15 22 22 22 21 21 20 21 20 18 19 18 17 20 22 23 22 22 24 22 25 27 28 27 28 30 30 31 28 23 23 23 19 17 16 15 14 15 15
18 23 23 23 23 21 21 21 21 20 21 21 21 20 20 20 19 18 20 22 22 23 20 21 25 19 22 25 27 26 28 29 29 28 29 25 22 22 20 18 17 16 15 15 15
19 22 21 22 22 22 22 21 21 21 21 21 21 20 21 19 21 21 22 22 23 22 23 24 23 24 22 26 28 27 27 28 27 28 22 23 22 22 21 20 19 18 17 17 16
19 21 21 21 21 22 17 20 21 20 20 21 21 22 21 20 20 20 22 21 21 22 22 24 22 24 24 25 26 27 27 28 28 28 25 25 22 23 21 21 20 19 18 17 17
18 19 20 20 22 22 21 20 20 19 19 20 20 21 20 19 19 20 21 21 20 21 21 21 21 22 23 24 24 24 25 25 26 27 23 21 20 22 21 20 19 18 17 17 16

GFSSW_850_temp_087.txt.gz
Temp
14 14 14 14 15 15 15 15 15 16 16 17 17 17 18 18 19 19 20 21 21 21 20 20 22 21 21 22 22 21 20 20 23 22 21 23 22 23 24 25 24 24 24 23 22
14 14 14 14 14 15 15 15 16 15 16 17 17 17 17 18 19 20 23 22 21 21 21 20 21 21 22 23 23 20 20 20 22 24 22 23 22 21 24 23 24 24 24 23 22
14 14 14 15 15 15 15 15 15 16 16 16 17 17 17 18 18 22 23 23 22 22 22 21 22 23 23 24 22 19 22 25 23 24 24 23 21 22 24 25 25 24 24 23 23
13 14 14 14 15 15 15 15 15 15 16 16 16 17 17 17 20 22 23 23 22 22 22 21 22 24 25 25 23 20 24 24 25 24 23 23 22 22 23 22 25 24 24 23 23
14 14 14 14 15 15 15 15 15 16 16 16 16 16 17 16 20 22 23 22 21 22 22 21 22 25 25 27 23 22 22 24 25 23 23 22 23 21 19 23 24 24 24 24 24
14 14 14 14 14 15 15 16 16 16 16 16 16 16 16 16 22 22 22 22 22 22 23 21 23 26 27 28 26 24 25 25 24 24 24 23 22 22 20 23 23 24 25 25 25
14 14 14 15 15 15 15 16 16 16 16 16 16 16 15 20 21 22 22 23 23 23 22 23 24 26 28 27 28 25 25 27 26 24 24 21 20 22 21 22 22 24 25 25 26
14 14 15 15 15 15 16 16 16 16 17 17 16 16 18 22 22 21 21 21 21 22 23 24 25 26 27 28 29 28 25 23 26 25 23 24 20 22 21 20 23 24 25 25 26
15 15 15 16 16 16 16 16 16 16 16 17 16 16 17 22 22 23 22 21 22 22 23 24 26 26 27 25 26 26 24 25 27 28 26 24 19 20 20 22 23 24 25 25 25
16 16 16 16 16 17 17 17 16 16 16 16 15 13 20 22 22 23 23 23 23 23 23 24 26 23 22 22 22 25 25 25 25 27 25 21 21 20 22 22 24 24 25 25 25
15 16 16 16 17 17 17 17 16 16 15 17 19 20 22 24 23 23 23 24 24 24 21 25 22 20 22 24 25 27 27 25 26 21 24 20 21 21 22 23 24 24 25 25 25
15 16 16 16 17 17 17 18 19 20 20 21 21 21 22 24 24 24 24 24 24 22 23 23 21 23 25 26 26 27 27 26 24 21 20 16 19 21 23 23 24 24 25 25 25
15 15 16 16 17 17 18 19 20 20 20 20 21 21 22 24 24 24 24 24 23 22 23 22 23 26 26 26 27 27 27 26 26 22 19 17 18 20 22 23 23 23 24 24 24
16 16 16 16 17 16 17 19 20 20 16 21 22 23 23 24 24 24 24 24 24 23 24 23 25 26 26 26 27 24 28 30 23 24 21 21 20 19 20 21 21 21 23 23 23
16 16 16 16 17 18 19 20 20 20 16 25 24 24 24 24 25 24 24 24 23 24 24 23 25 25 26 27 28 27 29 28 28 25 25 22 20 19 19 20 20 20 22 21 21
16 16 16 16 17 18 19 20 20 17 18 22 25 24 23 24 24 25 25 24 25 24 24 24 27 26 26 29 29 29 29 28 27 24 21 25 22 20 20 21 21 19 20 20 19
16 16 17 17 18 19 19 20 17 17 20 21 21 23 23 23 23 23 24 22 21 20 21 24 25 26 28 27 27 27 25 24 23 24 24 25 22 20 19 22 21 20 20 20 21
16 17 17 18 18 19 19 18 17 19 17 19 21 22 22 23 23 24 23 21 22 22 21 21 22 25 28 26 25 25 25 21 23 23 24 26 20 18 21 21 20 22 20 21 21
17 18 18 19 19 19 18 16 16 18 20 20 21 21 21 23 22 22 23 22 23 23 20 21 23 27 28 28 27 25 25 26 24 26 24 20 20 20 20 20 20 18 17 19 19
17 18 19 20 19 19 15 11 15 19 20 20 19 20 16 18 17 15 20 22 24 24 24 23 21 25 28 28 28 26 27 24 22 24 24 20 19 19 19 17 17 16 16 15 16
18 18 21 21 19 17 11 13 16 18 18 21 19 19 17 17 16 15 15 17 20 23 23 22 21 21 25 25 25 25 24 24 23 23 23 20 20 19 18 17 16 15 15 15 16
16 17 21 21 19 14 11 15 17 21 21 22 20 20 16 14 17 15 15 14 17 19 20 20 19 19 23 26 27 27 25 24 20 22 22 20 18 17 16 16 15 15 15 15 15
15 19 22 22 17 14 14 16 18 20 21 21 20 21 20 16 15 17 17 16 19 20 19 20 17 18 21 24 25 25 25 25 23 23 23 22 18 16 16 16 15 15 14 14 14
15 18 22 22 21 17 16 18 19 21 21 21 20 20 20 19 17 17 17 20 21 22 20 20 18 18 18 20 19 24 24 25 24 21 20 20 16 16 16 15 14 14 15 14 14
17 19 21 18 19 20 20 21 21 20 21 21 19 20 20 18 18 18 18 21 22 22 22 19 16 18 20 20 21 22 25 26 24 21 20 19 17 17 16 16 15 14 15 14 14
18 18 20 21 21 21 18 20 19 19 18 19 19 19 19 18 18 17 18 20 18 20 18 18 17 19 19 21 23 24 26 26 27 23 20 20 18 18 18 17 17 16 16 16 15
16 17 18 19 20 19 18 19 19 19 19 19 19 17 17 17 18 18 19 21 21 19 18 17 17 17 16 21 22 22 24 24 23 23 20 17 16 19 18 18 17 16 16 16 15

GFSSW_850_temp_090.txt.gz
Temp
14 14 14 15 15 15 15 15 15 15 16 16 16 17 18 19 19 19 21 22 21 21 21 20 21 20 19 19 20 21 19 20 21 20 19 21 23 24 23 23 22 23 20 19 18
14 14 14 14 14 15 15 15 15 15 16 16 16 17 17 19 19 21 23 22 22 20 21 21 22 20 20 21 21 20 19 19 22 21 21 23 23 23 23 24 23 21 20 20 20
14 14 14 14 14 15 15 15 15 15 16 16 16 17 17 18 20 23 23 23 22 21 21 22 22 21 21 22 21 19 19 20 21 23 23 22 21 22 23 22 22 20 19 20 21
14 14 14 14 15 15 15 15 15 15 15 16 16 17 17 17 20 22 23 23 22 21 21 21 20 21 22 22 22 21 20 21 22 23 23 23 22 21 22 23 22 22 21 21 21
14 14 14 15 15 15 15 15 15 15 15 16 16 16 17 17 21 22 22 22 22 21 22 21 20 20 21 23 21 21 21 22 21 23 23 23 22 21 22 23 22 21 21 21 22
14 14 14 14 15 15 15 16 16 16 16 16 16 16 16 15 22 22 22 22 22 22 22 21 21 22 22 25 23 22 23 24 22 22 21 23 21 23 22 24 23 22 22 23 22
14 14 15 15 15 15 16 16 16 16 16 16 16 16 16 21 21 21 22 22 23 23 23 22 23 21 24 26 26 26 21 21 23 23 23 22 21 21 22 23 23 22 23 23 22
14 15 15 16 16 16 16 16 16 16 16 16 15 15 18 22 21 21 21 21 22 22 23 23 22 22 22 25 27 24 23 20 21 22 21 22 19 21 22 22 23 24 23 23 22
15 15 16 16 16 17 17 16 16 16 16 16 15 15 19 21 21 22 21 22 22 22 23 23 22 23 24 23 21 24 21 22 21 24 21 21 18 18 21 20 22 24 24 24 22
15 15 16 16 17 17 17 17 16 16 16 16 15 14 20 22 22 22 22 22 21 22 22 22 22 21 19 19 19 22 23 23 23 22 21 19 20 19 18 20 22 24 24 24 22
15 16 16 16 16 17 17 17 16 16 15 19 20 19 20 21 22 22 22 22 22 22 19 22 19 19 20 21 22 23 23 24 22 21 18 18 20 19 19 19 19 23 24 24 23
16 16 16 16 16 17 17 18 19 18 17 19 20 19 20 21 21 23 23 22 21 19 20 20 18 20 23 23 23 23 24 23 21 19 18 17 19 19 20 20 21 23 24 24 23
16 16 16 16 16 17 18 19 19 18 16 19 20 21 21 22 22 23 23 23 21 20 20 18 21 23 23 23 23 22 24 23 23 18 17 17 17 18 20 19 20 22 23 24 24
15 16 16 16 17 17 19 19 19 18 12 17 20 22 22 22 22 24 24 23 22 20 21 20 23 23 23 22 23 21 25 26 21 20 19 17 18 19 19 20 21 22 22 23 23
15 16 16 16 16 17 18 18 19 18 13 21 21 23 24 22 23 23 24 24 21 22 20 20 22 22 22 23 23 23 26 26 23 21 19 19 20 19 18 19 19 21 20 23 22
15 16 16 16 17 18 18 18 19 14 15 19 22 20 22 22 23 24 24 24 24 22 22 21 25 22 23 25 24 26 26 26 23 19 20 20 19 18 19 20 20 19 20 21 22
16 16 17 17 18 18 18 19 13 14 18 19 18 19 20 20 21 22 22 21 19 19 18 21 22 23 25 24 23 24 21 20 20 19 20 22 20 21 21 21 21 20 21 21 22
16 17 18 19 18 18 18 14 15 18 17 18 19 18 19 20 20 21 20 19 19 19 17 18 19 23 24 23 23 22 22 18 21 20 23 21 19 20 21 22 22 21 21 20 21
18 18 19 19 18 18 17 12 13 16 18 18 17 16 15 17 16 16 15 18 20 18 18 18 19 22 24 25 24 23 21 21 21 23 20 19 18 20 18 19 19 19 19 19 19
18 19 20 19 19 18 12 12 14 17 17 17 16 17 14 15 14 14 15 18 17 18 18 19 18 20 23 25 25 23 23 23 18 22 22 18 18 18 17 17 17 17 16 16 18
18 17 20 19 19 18 12 12 15 17 17 17 17 16 14 15 15 13 14 18 18 17 17 18 17 19 21 23 22 22 22 20 20 18 21 20 18 17 16 16 16 15 15 15 16
17 13 19 20 16 10 10 12 16 17 19 17 17 15 15 15 15 15 16 17 18 17 17 17 14 16 19 21 22 22 21 20 18 21 18 18 18 16 15 15 15 15 15 15 16
16 17 20 19 12 11 12 16 16 17 17 19 19 18 15 15 15 16 16 17 18 18 18 17 14 14 18 19 20 23 24 20 18 18 20 19 17 15 15 15 15 15 15 15 15
16 13 21 20 18 13 15 15 17 19 17 20 19 19 17 17 15 16 16 18 19 20 19 17 13 13 13 15 17 20 21 22 19 18 17 16 16 15 15 15 14 14 14 14 14
17 15 18 15 16 16 15 16 17 17 18 18 18 18 17 17 16 16 17 18 20 20 18 15 14 15 15 17 19 20 20 21 22 18 19 16 16 16 16 14 15 14 13 13 14
16 15 16 16 17 15 14 15 17 17 17 16 16 16 14 14 15 16 16 16 18 17 15 15 15 14 15 18 19 20 22 22 22 20 17 17 16 16 15 14 14 15 14 13 12
15 16 16 16 14 14 14 15 16 17 17 17 16 16 15 16 17 17 17 17 18 17 16 16 14 14 14 15 16 17 17 19 22 20 17 16 15 15 15 15 15 15 15 14 13

GFSSW_850_temp_093.txt.gz
Temp
14 14 14 14 15 15 15 15 15 15 15 16 16 17 17 18 18 19 21 22 21 21 21 20 20 19 18 19 19 19 18 20 21 19 20 22 22 22 22 20 21 21 20 18 18
14 14 14 14 14 15 15 15 15 15 16 16 16 16 17 18 19 20 22 22 21 21 21 21 20 19 19 20 20 19 19 19 20 19 20 22 22 22 21 21 19 20 18 18 19
14 14 14 14 15 15 15 15 15 15 15 16 16 16 17 18 19 22 22 22 21 21 21 21 21 20 20 21 21 19 19 20 20 20 21 22 21 23 21 20 19 19 17 18 18
14 14 14 15 15 15 15 15 15 15 16 16 16 16 17 17 20 22 22 22 22 21 20 20 20 20 17 19 21 20 18 18 21 21 22 22 22 23 23 21 21 20 19 19 19
14 14 14 14 15 15 15 15 15 15 16 16 16 16 17 17 21 22 22 22 21 21 21 20 20 20 19 20 20 20 22 22 20 22 22 22 22 22 22 21 21 20 19 19 19
14 14 15 15 15 15 15 15 15 16 16 16 16 16 16 15 22 22 22 22 22 21 21 21 21 21 20 21 21 23 21 20 19 20 20 21 20 21 20 22 20 19 19 19 20
14 15 15 15 15 15 15 16 16 16 16 16 15 16 16 20 21 21 21 21 22 22 22 21 20 21 21 21 23 23 21 20 19 19 22 20 20 19 21 21 20 19 19 19 19
14 14 15 15 15 16 16 16 16 16 16 16 16 15 17 20 20 20 20 20 20 20 21 21 21 21 21 23 24 23 21 21 22 22 21 21 19 21 21 21 21 20 20 20 20
15 15 15 15 16 16 16 16 16 16 16 15 15 15 18 19 21 21 21 21 21 20 20 21 21 21 22 21 20 22 21 21 21 21 22 20 19 19 20 21 21 21 21 20 20
15 15 15 15 16 16 16 16 16 15 15 15 14 14 19 20 21 22 21 20 20 20 20 20 21 18 17 18 19 21 22 21 22 22 21 19 19 19 19 19 21 22 22 21 21
15 16 16 16 16 17 17 16 16 15 15 17 18 19 20 20 21 22 22 20 21 21 18 20 18 18 19 20 21 22 23 23 21 19 18 18 19 19 19 19 20 22 22 22 21
15 16 16 16 16 17 18 17 17 16 15 18 18 18 19 20 20 21 22 20 20 18 19 17 17 19 21 21 22 22 23 19 19 19 19 18 18 19 18 19 19 22 22 22 21
16 16 16 16 17 17 18 17 17 16 15 18 19 19 21 21 20 22 21 21 20 19 18 17 20 21 22 22 22 22 23 21 19 18 18 18 17 17 19 19 19 19 21 22 21
15 16 16 16 17 18 18 17 17 18 12 17 19 20 21 22 21 23 22 22 21 19 18 19 21 22 22 22 21 21 22 25 20 18 18 19 18 18 19 19 19 19 20 22 21
15 16 16 16 17 17 17 18 18 18 15 20 20 21 22 22 22 22 23 23 20 20 19 19 21 21 21 21 21 21 23 25 21 18 16 18 18 19 19 19 18 17 20 22 21
15 16 16 17 17 18 18 18 19 14 16 18 19 19 21 21 22 23 23 23 23 20 20 20 22 22 21 22 22 23 24 21 18 17 18 18 18 19 18 20 19 19 20 21 21
16 16 16 17 18 18 18 18 13 14 17 18 17 17 17 18 21 21 21 20 19 18 18 19 20 22 23 22 22 23 20 20 18 18 19 19 18 21 20 21 21 20 19 21 21
17 17 18 18 18 18 18 14 14 17 17 17 18 17 16 15 16 17 18 18 19 18 16 17 18 21 22 21 21 19 18 17 20 17 19 19 19 21 18 21 22 22 20 19 20
17 18 19 19 18 18 17 12 13 15 17 16 16 15 15 15 16 16 15 16 16 18 17 15 18 21 22 23 21 22 19 20 20 19 19 18 18 19 19 18 19 19 20 20 19
18 19 19 19 18 18 13 12 13 15 16 16 16 15 15 14 15 14 16 17 17 18 16 18 18 20 22 23 22 21 21 20 16 19 21 18 18 18 17 17 16 15 16 18 18
18 19 19 19 18 18 11 11 14 16 16 16 17 15 14 15 14 14 15 17 17 18 17 17 16 18 20 21 21 20 21 17 17 17 18 19 18 17 17 17 16 15 15 16 17
17 15 19 19 16 9 11 13 15 16 17 17 16 15 15 14 15 14 15 16 17 17 18 16 13 16 18 20 19 20 20 18 17 20 16 19 17 16 16 15 15 15 14 15 15
16 17 17 18 13 11 11 14 15 16 16 18 18 17 15 14 15 15 15 17 17 18 17 17 13 14 17 18 17 17 19 18 16 16 17 18 17 15 15 14 15 14 15 15 15
16 14 18 18 16 13 15 16 16 17 17 18 17 17 16 16 14 15 16 18 18 18 19 17 11 13 14 15 15 15 17 19 18 17 16 16 16 15 15 15 15 14 14 15 15
16 13 15 13 14 14 14 16 16 16 17 16 16 15 16 15 15 16 16 16 17 18 17 14 14 14 14 14 16 16 17 18 19 18 19 15 16 16 15 15 15 14 14 14 14
15 14 16 14 14 14 12 15 16 16 15 15 15 15 15 14 14 15 14 15 17 17 16 13 13 14 16 16 16 17 18 18 19 16 16 16 16 16 15 15 14 14 13 13 13
15 15 15 13 12 13 13 15 16 15 16 16 15 15 15 16 16 16 16 16 15 17 14 13 12 12 14 13 15 16 16 16 18 17 17 15 15 13 14 15 14 13 13 12 12

GFSSW_850_temp_096.txt.gz
Temp
14 14 14 14 15 15 15 15 15 16 16 16 16 16 17 18 18 19 20 21 21 21 20 20 19 19 18 18 19 18 18 19 19 19 21 21 20 21 20 20 20 20 18 18 18
14 14 14 14 14 14 15 15 15 15 16 16 16 16 17 18 19 20 22 22 21 21 20 21 19 18 19 19 20 19 18 20 19 19 21 21 21 21 20 19 18 18 18 18 18
14 14 14 14 14 14 14 15 15 15 16 16 16 16 17 18 19 21 21 22 21 21 21 20 20 19 19 20 20 19 19 19 18 19 20 22 21 21 19 18 19 17 18 18 19
14 14 14 14 15 14 14 15 15 15 16 16 16 16 17 17 20 21 21 22 21 20 20 19 19 19 17 19 20 19 19 19 18 19 21 21 22 21 21 20 21 21 20 19 19
14 14 14 15 15 15 15 15 15 15 15 16 16 16 16 17 21 21 22 22 20 20 20 20 19 18 17 17 19 19 20 20 20 20 21 21 22 21 20 21 20 21 20 19 19
14 15 15 15 15 15 15 15 15 15 15 16 16 16 16 16 20 21 22 21 21 20 20 20 19 20 20 20 19 22 21 19 18 20 21 20 19 21 19 20 18 20 19 19 20
14 15 15 15 16 16 16 16 16 16 15 15 15 15 16 19 20 21 21 21 21 21 20 20 20 20 20 20 22 22 20 19 19 19 19 19 18 20 18 19 18 19 19 18 19
15 15 15 15 15 16 16 16 16 16 16 16 15 15 17 19 19 20 20 20 20 20 20 21 19 20 20 21 23 21 21 20 19 17 17 17 18 17 18 19 18 18 18 18 18
15 15 15 15 15 16 16 16 15 15 16 16 15 15 18 19 20 20 20 19 19 19 20 20 20 20 21 20 19 20 20 21 20 21 19 19 18 19 18 20 19 18 18 18 18
15 15 15 15 15 15 15 16 15 15 15 14 15 14 19 19 20 20 20 19 19 19 19 20 20 18 17 17 19 21 21 21 21 20 20 20 18 18 18 20 20 19 19 19 19
15 15 15 15 16 16 16 16 15 15 15 16 17 18 19 19 20 21 20 19 19 19 16 19 17 17 18 19 20 21 22 21 18 18 19 19 18 18 19 19 18 20 20 19 20
15 16 15 16 16 17 17 16 16 15 14 17 17 17 18 19 19 20 20 20 19 17 17 16 16 18 20 20 21 22 20 19 18 18 18 17 18 19 19 19 19 19 20 20 20
15 15 16 16 17 17 17 16 16 15 14 17 18 18 20 20 20 20 20 20 18 18 18 17 19 20 21 20 21 21 22 18 19 18 18 17 17 17 19 19 19 19 20 20 21
15 16 16 16 17 17 17 17 17 17 12 17 18 20 20 21 21 21 21 21 19 17 17 19 20 20 20 21 20 21 21 23 18 18 19 18 18 18 19 18 19 19 20 20 20
15 15 16 16 17 17 17 17 18 17 15 19 19 20 20 20 21 21 21 22 19 19 18 18 19 20 20 21 21 19 22 22 19 17 17 17 18 19 18 18 18 18 19 20 20
15 16 16 17 17 18 17 18 18 14 16 17 19 17 19 20 21 21 21 22 21 20 20 19 21 20 20 21 21 22 23 18 17 16 17 18 19 19 17 19 19 18 19 20 20
15 16 17 17 18 18 18 18 13 13 17 17 17 15 16 15 19 18 19 19 18 17 18 19 20 21 22 21 21 22 21 18 18 17 17 17 18 19 19 20 20 19 20 19 19
16 17 18 18 18 18 18 14 14 16 16 16 16 16 16 14 15 16 18 17 18 17 14 17 17 20 20 20 19 18 18 17 18 16 18 17 18 20 18 19 21 20 19 18 19
18 18 19 18 18 18 17 11 13 14 16 15 15 15 15 15 16 15 15 16 16 17 17 16 18 20 21 21 20 19 18 19 17 17 17 16 18 19 18 17 19 19 18 18 19
19 19 19 18 18 18 13 12 13 14 16 15 15 15 15 14 15 15 16 17 17 17 17 16 17 19 21 21 21 20 19 19 15 17 20 17 17 19 17 16 16 18 17 18 18
19 19 17 18 18 18 11 11 13 16 15 16 16 15 14 14 14 14 15 17 17 17 16 16 15 18 19 20 19 19 19 16 16 15 17 17 17 16 16 16 16 16 16 18 19
18 14 17 17 16 8 10 12 14 15 16 16 15 15 15 14 14 14 15 15 17 16 17 15 12 15 18 19 17 19 19 17 16 18 15 17 17 16 17 16 15 15 15 15 17
17 16 16 17 13 10 11 14 14 16 16 17 17 16 14 14 15 14 15 17 17 16 15 15 12 14 16 17 17 16 17 17 14 14 16 18 17 16 15 15 15 15 15 15 16
17 13 17 17 15 13 14 15 16 17 16 16 16 16 15 15 13 15 15 17 17 17 17 15 10 13 14 16 14 16 16 17 15 16 16 17 15 15 15 15 14 14 14 15 15
16 12 13 13 13 12 13 14 16 15 16 15 15 14 15 15 15 15 14 14 16 17 16 14 14 14 14 14 15 16 16 16 17 17 19 18 16 15 16 16 15 14 14 14 14
16 14 14 12 13 14 10 14 16 15 14 14 15 15 14 14 15 15 14 15 16 16 15 12 13 14 15 15 15 17 16 15 17 16 16 15 16 14 16 14 14 14 13 13 14
15 15 15 11 11 12 12 15 15 15 16 15 14 14 15 15 15 15 15 15 14 14 13 12 12 12 14 13 16 16 15 14 14 17 15 16 15 14 14 14 13 13 13 13 13

GFSSW_850_temp_099.txt.gz
Temp
14 14 14 14 15 15 15 15 15 15 15 15 16 17 17 17 18 19 20 21 21 20 20 20 19 18 17 18 18 18 19 21 21 19 22 22 22 20 20 21 20 19 19 17 17
14 14 14 14 15 15 15 15 15 15 15 15 15 16 17 17 18 20 21 21 21 20 20 20 19 18 18 19 19 19 20 20 20 20 22 22 22 21 21 20 18 17 16 17 16
14 14 14 14 14 14 15 15 15 16 15 16 16 16 17 17 19 21 21 21 21 20 20 20 20 19 20 20 20 20 21 20 20 20 22 22 21 21 21 21 19 18 17 16 16
14 14 15 15 15 15 15 15 15 15 16 16 16 16 16 17 21 20 20 21 21 20 19 19 18 19 20 21 20 21 20 20 18 19 22 22 22 21 22 21 20 18 18 17 17
14 14 15 15 15 15 15 15 15 15 16 16 16 16 16 17 20 20 21 21 20 20 19 19 19 18 19 20 20 21 21 20 18 19 20 22 22 22 21 19 18 18 18 18 18
14 14 15 15 15 15 15 16 16 15 16 16 16 16 16 17 20 20 21 21 20 19 19 19 19 19 20 21 21 22 21 19 19 20 19 21 21 22 20 19 18 18 18 18 18
14 15 15 15 15 16 16 16 16 16 15 15 15 16 16 18 19 20 20 20 19 19 19 19 20 20 20 22 21 22 21 21 19 20 18 18 19 19 19 19 19 19 19 18 18
15 15 15 15 15 15 16 16 16 16 16 15 15 15 17 18 19 20 19 19 19 19 19 20 19 20 20 21 23 23 23 21 20 20 18 18 19 18 18 20 20 19 19 18 18
15 15 15 15 15 15 15 16 16 16 16 16 15 15 18 18 19 19 19 19 19 19 19 19 19 21 22 23 24 22 22 23 19 18 18 18 17 18 17 20 20 19 19 19 19
15 15 15 15 15 15 16 16 15 15 15 15 15 15 18 18 19 19 19 18 19 19 19 20 20 22 22 24 24 23 22 23 21 18 18 17 18 17 16 18 20 19 20 19 19
15 15 15 16 15 16 16 16 15 15 15 16 16 17 18 18 18 19 19 19 18 19 20 20 22 22 22 24 24 24 23 23 20 19 19 19 20 18 18 18 19 20 20 20 20
15 15 15 16 16 16 16 16 16 16 16 17 17 17 18 18 18 18 19 20 19 20 19 21 22 22 23 22 24 24 24 21 20 18 20 18 18 20 20 20 18 19 20 20 19
14 15 15 16 16 17 16 16 16 15 15 17 17 17 19 19 19 18 19 19 20 20 21 22 23 22 23 22 24 24 24 23 22 19 19 19 17 17 20 20 19 19 20 20 19
14 15 16 16 16 17 16 16 17 17 18 19 19 19 19 19 21 20 20 21 20 21 21 22 21 22 22 22 23 23 24 23 21 22 22 21 22 19 19 20 19 18 18 20 20
15 15 16 16 16 16 16 17 17 17 18 20 20 19 19 20 20 20 20 21 21 21 21 22 22 22 22 23 22 23 23 22 22 21 21 20 21 21 21 20 20 19 19 20 21
15 15 16 17 17 17 17 18 17 18 17 19 19 18 20 19 21 20 20 21 20 21 21 22 21 23 24 22 23 24 21 22 21 21 21 23 24 24 21 22 21 19 19 20 21
15 16 17 17 17 17 18 17 18 17 18 18 18 18 18 18 20 21 21 21 21 20 21 21 22 23 23 23 22 23 23 21 20 22 23 21 22 25 23 22 22 21 19 20 20
16 17 18 18 18 18 18 19 16 17 17 17 17 18 18 17 18 19 21 21 20 21 21 21 21 22 23 24 23 23 24 24 21 22 24 20 23 25 22 21 22 21 21 19 20
17 18 18 18 18 18 18 17 17 17 17 17 18 18 18 18 18 19 19 21 21 21 21 20 21 22 22 24 24 22 23 25 24 22 24 23 23 22 21 21 22 22 21 19 19
18 18 18 18 18 18 18 15 16 15 16 17 18 17 18 17 19 19 19 19 20 19 19 20 21 21 23 23 22 24 25 23 23 22 23 23 22 26 21 20 22 22 21 20 19
18 18 17 17 17 18 17 16 16 16 15 18 18 18 17 17 16 17 18 18 19 19 18 21 21 22 22 23 24 23 23 23 25 24 25 24 24 21 21 19 21 21 20 19 19
18 19 17 17 18 11 16 15 14 17 15 17 17 17 17 16 17 17 17 17 17 18 20 19 21 21 22 21 20 22 24 24 24 22 24 25 26 19 20 19 18 19 18 18 18
17 16 16 17 18 16 14 16 15 17 17 18 18 17 16 17 17 17 17 17 17 19 19 19 19 20 21 21 20 21 21 21 21 22 24 25 26 18 18 17 17 16 16 16 16
17 18 16 17 14 16 17 17 18 16 16 16 17 17 17 17 16 17 17 18 17 18 16 18 18 20 21 21 20 21 20 20 21 24 25 25 24 17 17 17 16 16 15 16 16
16 14 14 18 16 15 15 16 17 17 16 16 17 16 16 17 17 17 17 18 18 16 17 19 19 18 18 19 18 19 19 19 20 23 24 26 24 22 19 17 16 15 15 15 15
15 15 14 12 12 16 14 16 17 17 17 17 16 16 16 17 17 17 17 17 17 18 18 17 18 17 18 18 18 19 19 20 20 21 21 21 23 21 18 16 15 14 14 15 15
15 15 16 11 14 17 16 16 17 16 16 16 16 16 16 16 16 16 15 15 16 17 17 17 18 17 18 17 19 19 19 19 18 19 20 21 21 20 17 16 15 14 14 14 14

GFSSW_850_temp_102.txt.gz
Temp
14 14 14 14 14 15 15 15 15 16 16 16 16 17 17 18 18 19 19 19 20 20 19 18 18 19 20 19 20 18 20 23 25 25 24 24 25 23 23 23 23 23 23 19 17
14 14 14 14 15 15 15 15 15 15 16 16 16 17 17 18 18 19 20 20 20 20 19 19 20 20 21 22 20 21 21 23 24 23 26 25 25 24 24 23 23 23 21 18 18
15 15 15 15 15 15 15 15 16 16 15 16 16 16 17 18 18 21 20 20 20 20 20 21 21 21 23 21 23 22 22 24 20 22 26 25 24 24 25 25 23 22 20 19 19
15 15 15 15 15 15 16 16 16 16 16 16 16 16 17 17 24 19 20 21 21 19 20 21 21 22 24 25 23 22 23 23 21 22 25 25 24 25 25 25 23 22 21 20 20
15 15 15 15 16 16 16 16 16 16 16 16 16 16 16 17 21 20 20 21 20 18 20 22 22 23 24 25 23 24 23 21 21 22 25 25 25 24 23 23 22 21 21 21 21
15 15 15 16 16 16 16 16 16 16 16 16 16 16 15 21 20 20 20 20 18 19 21 22 23 23 24 25 25 24 23 22 18 20 21 25 25 25 22 22 22 21 22 22 22
15 15 15 15 15 16 16 16 16 16 16 16 16 16 14 20 19 19 17 19 19 20 21 22 22 23 24 25 23 24 22 21 21 22 18 23 24 25 23 22 22 22 22 22 22
14 15 15 15 15 15 16 16 16 16 16 16 16 16 19 18 18 17 17 18 19 20 21 21 21 23 24 25 24 23 24 22 22 21 17 18 22 21 23 23 23 23 22 22 22
14 15 15 15 15 15 16 16 16 16 16 16 16 15 21 18 18 18 19 19 19 20 20 20 21 23 25 26 27 23 24 23 20 18 17 17 19 18 21 23 24 23 23 22 22
14 15 15 15 15 16 16 16 16 15 16 16 16 16 19 20 19 18 19 20 20 21 21 22 23 25 26 27 27 28 24 23 23 19 16 16 17 17 19 23 24 24 23 23 22
15 15 15 15 16 16 17 16 15 14 14 19 20 20 20 19 19 19 19 20 21 22 24 24 25 25 27 28 28 28 25 21 19 17 17 17 18 18 18 19 23 24 24 23 23
14 15 15 16 16 17 17 16 17 16 20 18 17 17 18 19 20 20 20 22 22 24 25 24 25 27 27 27 27 28 26 21 18 19 20 18 18 18 19 18 20 23 24 24 24
14 15 15 16 16 17 17 16 16 15 20 20 19 20 20 20 22 21 20 22 24 24 24 26 27 27 25 26 27 28 28 25 22 21 20 19 18 18 20 19 19 20 23 24 24
14 15 15 16 16 17 17 17 17 17 22 22 22 20 20 21 23 21 21 23 24 24 25 26 26 25 25 25 26 27 27 27 24 23 24 24 21 18 20 20 19 19 20 24 23
15 15 16 16 16 16 17 17 17 16 21 22 22 20 21 23 22 22 22 23 24 25 25 26 25 25 25 25 26 25 27 26 26 26 26 24 25 26 21 22 22 22 22 22 24
15 16 16 17 17 17 17 18 17 21 19 21 22 22 23 23 23 22 22 22 24 25 25 26 25 26 27 26 26 24 24 25 26 26 26 28 27 24 22 24 24 21 21 21 23
16 17 17 17 17 17 18 17 22 21 21 21 21 23 24 23 23 24 23 23 24 23 24 24 25 26 26 26 26 26 23 23 22 25 26 27 27 29 26 27 26 24 20 21 21
17 18 18 18 18 18 17 22 20 20 21 21 22 23 23 22 23 24 24 24 24 25 25 24 23 25 26 27 26 26 24 23 24 23 28 26 27 29 28 27 27 26 23 22 21
18 18 18 18 18 18 20 21 20 21 21 21 22 23 22 23 23 23 24 24 25 25 24 25 25 26 26 27 27 26 26 27 25 28 27 29 29 28 26 26 26 26 25 22 21
18 17 18 18 18 18 22 18 20 20 21 22 21 22 22 22 23 23 23 24 24 24 25 25 24 25 26 26 26 27 28 27 27 26 26 28 28 29 26 26 27 26 25 23 21
18 20 18 18 19 21 21 20 21 20 20 22 21 22 21 21 22 22 23 23 23 24 24 25 25 24 25 25 26 26 26 27 29 28 27 27 28 28 27 27 27 27 25 24 21
18 22 18 19 21 21 21 21 18 21 20 21 21 22 21 21 21 22 21 22 20 22 23 25 25 24 25 26 26 27 27 27 27 26 28 28 28 25 25 24 24 26 25 23 22
20 20 18 19 22 21 20 21 20 21 21 22 21 21 21 21 21 21 21 20 20 22 23 24 24 23 24 25 25 25 26 27 28 29 27 27 28 25 23 22 21 23 23 22 21
19 22 20 20 19 21 21 21 21 19 20 20 21 21 21 21 21 20 21 21 20 21 18 20 24 24 24 24 26 25 25 25 26 26 27 28 29 26 24 23 21 19 19 19 19
18 21 19 22 21 21 21 21 20 20 20 20 20 20 20 20 21 20 21 22 21 18 20 23 23 23 24 24 24 25 25 25 25 26 27 28 28 29 27 24 21 19 17 18 18
19 20 18 19 18 21 17 20 20 20 20 20 20 20 20 20 20 20 21 21 22 22 22 23 22 22 22 23 23 23 24 24 25 26 26 27 28 28 26 23 20 18 18 17 17
15 16 18 17 20 21 21 20 20 19 19 19 18 19 20 20 19 19 20 20 21 21 21 21 22 21 21 23 22 22 24 24 24 24 25 26 27 26 23 22 20 18 17 17 16

GFSSW_850_temp_105.txt.gz
Temp
15 15 15 15 15 15 15 16 16 16 16 16 17 17 17 18 18 18 18 20 20 21 20 21 21 22 23 21 21 20 20 25 26 26 25 27 26 26 25 26 26 26 24 23 23
15 15 15 15 15 16 16 16 16 16 16 16 17 17 18 18 19 18 20 20 21 21 20 22 23 23 24 23 23 22 21 25 27 28 27 27 27 26 27 27 26 26 24 22 23
15 15 15 15 16 16 16 16 16 16 16 16 17 17 17 18 17 23 21 21 21 21 21 23 24 24 25 24 24 25 23 22 26 25 28 28 27 28 28 28 26 24 22 22 23
15 15 15 15 16 16 16 16 16 16 16 16 17 17 17 18 25 21 21 21 22 21 22 23 24 25 26 25 26 24 24 24 24 24 27 28 27 27 28 28 26 24 23 23 23
15 15 15 15 16 16 16 16 16 16 16 16 17 17 17 18 22 20 21 21 21 20 22 24 25 26 26 26 27 26 24 23 23 24 27 27 28 27 27 26 25 24 24 24 24
15 15 15 15 15 16 16 16 16 16 16 16 16 17 16 22 21 20 20 21 20 21 23 24 26 26 25 25 27 25 24 22 22 25 26 27 27 27 26 25 25 24 24 24 24
15 15 15 15 15 16 16 16 16 16 17 16 16 16 17 22 20 20 20 20 21 22 24 25 26 26 26 28 27 24 24 24 20 22 24 23 27 26 26 25 25 25 25 25 25
15 15 15 15 16 16 16 16 16 16 17 17 16 16 21 20 20 20 21 22 22 23 24 25 25 25 27 28 24 24 23 22 20 20 22 23 23 26 25 25 25 25 25 25 25
15 15 15 15 16 16 17 17 17 16 17 17 16 16 23 20 20 21 21 22 22 23 24 24 24 25 27 28 25 20 21 22 19 18 20 21 22 25 26 26 26 26 25 25 25
15 15 15 16 16 17 17 17 17 16 17 17 15 18 21 22 22 22 22 22 23 23 23 24 25 27 28 29 27 21 20 22 20 18 18 17 19 22 26 26 26 26 26 25 25
15 15 15 16 16 17 17 16 16 15 17 21 22 22 22 22 21 22 22 23 23 24 26 25 27 27 29 29 29 21 19 21 18 18 18 18 18 19 21 25 24 25 25 25 25
14 15 15 16 17 17 17 19 19 19 22 21 21 21 22 22 23 23 22 24 24 25 27 27 27 30 29 28 29 30 25 20 17 18 20 17 18 17 18 23 22 24 24 25 24
14 15 15 16 17 17 17 19 19 19 22 23 22 23 22 22 24 23 23 25 26 26 27 28 30 30 29 28 28 30 22 21 19 18 18 19 17 17 17 19 20 20 22 25 25
15 15 15 16 17 18 19 19 18 18 23 23 24 23 23 23 25 24 24 25 27 27 28 28 31 30 29 28 29 29 26 22 19 22 20 21 19 18 18 18 18 20 22 23 27
15 16 16 16 17 19 19 19 19 19 22 24 25 23 24 25 25 24 24 25 27 27 28 28 29 28 28 29 29 28 29 21 21 25 26 22 23 21 19 19 18 19 21 23 25
15 17 17 17 18 18 18 19 19 22 21 24 24 25 25 25 25 25 24 25 26 27 28 29 29 29 29 30 29 29 28 28 28 27 27 27 28 24 21 22 21 20 20 21 23
17 18 18 17 19 18 18 19 23 23 24 24 25 25 26 26 26 25 25 25 26 25 26 27 27 29 29 28 28 28 28 25 26 28 28 28 29 27 26 25 24 24 22 22 24
18 18 18 18 18 18 19 23 22 23 24 25 25 25 25 26 26 26 26 26 27 28 28 27 26 28 29 29 28 28 28 27 24 26 29 30 28 27 29 27 28 26 24 23 24
18 19 18 19 18 18 20 23 23 24 24 25 25 25 25 25 25 26 26 27 27 27 27 28 27 29 29 29 30 29 28 30 28 22 24 27 29 25 31 29 28 28 26 24 24
19 21 20 19 18 19 23 20 23 24 25 25 23 24 24 25 25 25 26 27 27 27 28 27 27 28 29 28 29 29 30 28 29 26 26 28 28 28 27 29 29 30 29 26 25
19 23 21 20 20 21 24 23 24 23 23 24 24 24 25 24 24 25 23 25 26 26 26 27 27 27 28 27 28 28 28 29 30 30 29 29 28 28 27 29 29 29 29 27 24
21 24 21 20 23 25 24 24 22 24 23 24 24 25 24 24 25 24 24 23 24 25 25 27 27 26 27 29 29 30 29 29 29 28 30 31 25 30 30 30 30 29 28 26 23
22 23 21 21 24 24 23 23 23 24 24 24 24 24 24 24 23 24 24 24 23 25 25 26 26 25 26 28 28 28 29 30 30 30 29 29 29 29 28 27 27 28 28 26 23
22 24 23 23 23 24 24 23 23 22 23 23 23 23 24 24 24 23 24 24 23 24 21 22 26 26 23 24 25 27 27 29 29 29 29 30 30 28 28 27 26 26 27 26 23
22 24 23 24 24 24 24 23 23 23 23 23 23 23 23 22 23 23 24 24 24 21 22 25 24 25 25 25 26 26 28 28 27 28 28 30 30 31 30 28 25 24 23 23 22
22 23 22 23 22 23 18 23 23 23 22 23 22 23 23 22 23 20 23 24 24 24 24 25 23 22 22 25 25 26 27 26 28 28 28 29 30 31 29 27 25 21 20 20 19
19 20 21 21 23 24 23 23 22 22 22 21 21 22 23 23 22 22 23 23 23 23 23 24 24 23 22 25 25 24 26 27 27 28 28 27 29 28 28 27 25 21 19 18 19

GFSSW_850_temp_108.txt.gz
Temp
15 15 15 15 15 15 16 16 16 16 16 17 17 17 17 18 18 18 19 21 21 21 21 21 21 23 24 24 22 20 21 21 25 27 29 30 27 26 26 26 26 26 25 23 25
15 15 15 15 16 16 16 16 16 16 16 17 17 17 18 18 18 18 21 21 21 21 21 22 23 24 25 23 24 21 19 23 26 29 29 29 27 27 26 28 26 26 24 24 25
15 15 15 16 16 16 16 16 16 16 16 17 17 17 17 18 18 22 22 21 22 21 20 24 25 25 26 26 24 23 19 19 23 27 28 28 26 28 28 27 27 26 25 25 25
15 15 15 16 16 16 16 16 16 16 17 17 17 17 18 18 24 22 22 21 22 22 20 24 26 26 26 26 26 24 18 19 19 27 26 30 29 29 29 28 26 25 24 25 25
15 15 15 16 16 16 17 17 17 17 17 17 17 17 18 17 22 22 21 22 22 22 21 24 26 27 26 26 26 23 25 22 22 26 28 29 29 27 28 27 26 25 25 25 25
15 15 15 16 16 16 16 17 17 17 17 17 17 17 17 20 23 22 21 22 21 21 22 25 26 27 26 26 23 24 25 25 25 25 23 28 28 28 27 27 26 25 25 25 25
15 15 15 16 16 16 16 17 17 17 17 17 17 17 16 21 22 22 21 21 21 22 24 25 26 28 28 25 26 25 24 25 23 24 22 26 27 28 27 27 26 26 26 26 25
15 15 15 16 16 16 17 17 17 17 18 17 17 17 19 22 22 22 22 22 23 23 25 26 26 27 27 26 27 25 24 23 23 22 19 24 23 27 27 27 26 26 26 26 26
15 15 15 16 16 17 17 17 17 17 17 17 17 17 22 22 21 23 23 24 24 24 25 26 26 27 27 25 26 23 19 22 20 18 20 23 23 26 27 27 27 27 26 26 26
15 15 16 16 16 17 17 17 18 17 17 17 17 18 21 23 23 23 24 24 25 25 25 25 26 27 28 26 25 20 19 18 19 18 18 22 23 26 27 27 27 27 27 26 26
15 15 16 16 17 17 18 17 16 16 17 21 22 23 24 24 23 24 24 24 25 25 26 26 26 27 29 29 25 24 21 19 17 17 18 19 19 22 24 27 27 27 27 26 26
15 15 16 17 17 17 18 17 21 21 22 22 23 24 24 24 24 24 24 25 26 26 27 28 26 29 31 29 25 25 21 18 17 17 18 17 19 18 19 20 25 25 26 26 25
15 15 16 17 17 18 18 19 21 21 23 24 24 24 24 24 25 25 24 26 26 26 27 27 30 30 31 30 22 20 20 19 18 18 17 17 17 17 18 18 19 21 22 23 24
15 16 16 17 17 18 20 21 21 21 22 25 25 25 24 24 26 25 25 26 28 27 28 29 31 31 30 30 30 21 23 22 20 19 20 20 19 17 17 18 20 20 22 22 22
15 16 17 17 18 20 21 21 21 21 19 26 26 24 25 25 26 26 25 26 27 28 29 28 29 30 30 30 31 23 25 24 22 20 22 19 21 19 17 18 19 20 22 22 22
16 17 18 18 19 20 21 21 22 22 18 25 26 26 25 26 27 26 26 26 27 28 29 29 31 31 30 31 31 28 25 23 20 19 19 22 23 21 19 20 22 22 23 22 22
18 18 18 18 20 21 21 21 23 21 25 25 26 26 26 26 27 27 26 26 26 25 26 28 29 30 30 30 30 29 24 24 21 19 23 26 23 23 22 23 23 22 23 23 24
18 19 19 19 18 20 21 23 21 23 25 26 26 27 25 26 27 27 26 26 27 28 28 27 27 29 30 30 29 28 29 28 24 25 20 20 26 28 25 25 24 23 23 22 22
19 19 20 20 20 20 22 22 22 25 26 26 26 26 25 27 26 26 27 27 28 29 27 26 28 30 30 31 30 29 28 31 25 22 26 23 24 27 26 27 25 24 23 23 22
19 19 23 22 21 21 23 22 25 26 26 26 24 25 23 25 26 26 26 28 27 28 29 27 26 30 30 30 30 30 31 28 30 25 24 23 23 20 26 27 27 25 24 24 24
19 21 23 23 22 23 23 24 25 25 25 25 24 25 24 25 25 25 24 26 27 27 28 27 26 27 29 28 28 29 29 29 30 30 27 22 21 20 24 28 29 27 26 24 24
19 22 24 23 24 26 25 25 24 26 25 26 26 26 25 24 25 25 25 25 25 26 26 28 27 25 27 30 30 30 29 29 28 28 29 28 25 24 21 20 24 30 26 25 25
20 24 24 23 24 26 25 25 25 26 25 26 25 25 25 25 24 24 25 23 25 26 24 26 26 25 27 28 29 28 30 30 30 30 29 29 27 22 21 20 30 29 29 27 26
19 25 25 24 25 26 25 25 25 24 24 24 24 25 25 25 26 22 22 26 25 25 23 24 25 26 23 21 25 27 28 29 30 29 29 30 28 28 27 28 29 29 27 25 24
21 24 25 25 26 25 25 25 24 24 24 24 24 24 24 23 22 23 25 25 25 22 24 25 24 25 24 25 26 26 26 28 28 29 29 30 29 29 29 28 29 28 27 25 24
21 23 24 25 24 24 20 24 24 25 24 24 23 24 24 23 24 22 24 24 23 24 24 25 24 25 24 25 26 26 27 27 28 29 29 29 29 29 23 26 27 26 24 24 23
22 22 23 23 25 25 25 24 24 23 23 23 23 23 23 24 23 23 23 25 25 23 20 22 24 24 23 25 25 23 26 26 28 28 29 28 26 28 24 21 17 22 22 21 21

GFSSW_850_temp_111.txt.gz
Temp
15 15 15 16 16 16 16 16 16 17 17 17 17 17 18 18 18 19 20 22 21 22 22 22 21 22 22 23 22 20 19 20 21 22 26 25 23 26 26 25 25 25 24 23 22
15 15 16 16 16 16 16 16 16 17 17 17 17 17 18 18 19 20 23 22 21 21 22 21 22 22 22 24 23 21 19 19 20 21 26 25 24 26 25 24 25 23 24 23 21
15 15 16 16 16 16 16 16 16 17 17 17 17 17 18 18 19 21 23 22 21 21 22 21 23 24 25 24 24 20 18 17 18 20 28 27 26 26 26 23 24 23 24 24 23
15 15 16 16 16 16 17 17 17 17 17 17 17 17 17 18 21 22 23 22 21 21 22 21 22 24 25 25 25 22 18 17 17 20 18 26 27 26 27 25 24 24 24 24 24
15 15 16 16 16 16 16 17 17 17 17 17 17 17 17 17 20 22 22 22 22 22 22 22 22 25 25 25 26 22 17 16 18 20 18 25 26 27 26 25 25 25 25 24 24
15 15 16 16 16 16 16 16 17 17 17 17 17 17 17 17 22 22 22 23 23 22 23 22 24 26 25 25 24 22 18 19 17 18 22 25 25 26 25 25 24 25 25 25 25
15 15 16 16 16 16 16 17 17 17 17 17 17 17 16 21 22 22 22 23 23 23 22 24 25 26 27 24 25 23 22 22 21 22 21 22 25 25 25 25 24 24 25 25 24
15 15 16 16 16 17 17 17 17 17 17 17 17 17 18 21 22 22 22 22 22 22 22 24 25 26 27 24 20 20 22 21 20 21 20 20 23 25 26 25 25 25 25 25 25
15 15 16 16 17 17 17 17 18 17 17 17 16 16 18 22 22 23 23 23 23 23 23 24 26 26 27 25 22 19 18 18 19 19 19 18 23 26 27 25 25 25 25 25 25
15 15 16 16 17 17 17 18 18 18 17 18 17 15 21 22 23 23 23 24 24 24 24 25 26 23 23 23 20 19 19 18 18 19 18 19 23 25 26 26 26 26 26 25 25
15 15 16 16 17 18 18 18 18 18 17 20 21 22 24 24 24 24 24 24 25 25 23 25 22 20 22 25 23 21 20 19 17 17 18 17 19 19 20 25 26 26 26 25 25
15 15 16 17 17 18 18 19 20 21 21 22 22 23 24 24 24 24 24 24 25 22 24 23 20 24 26 24 22 21 19 17 17 17 17 17 17 18 18 18 19 20 26 25 24
15 16 16 17 18 19 20 20 21 21 21 23 23 24 24 24 24 24 24 24 24 23 24 22 24 27 27 25 22 21 19 18 19 17 17 17 17 17 19 19 20 21 22 25 24
16 16 17 18 18 19 19 21 21 21 19 23 24 25 25 24 24 25 25 25 25 23 24 24 27 28 27 26 22 20 20 20 18 18 18 18 18 16 17 18 18 20 21 23 24
16 17 18 18 19 19 21 22 21 22 17 24 25 24 25 25 26 25 25 25 24 25 25 24 26 27 27 26 24 19 18 19 20 18 18 18 17 19 17 18 18 19 20 22 23
17 18 18 19 20 20 21 21 22 19 19 23 26 25 25 25 26 26 25 25 26 25 25 26 29 28 28 24 26 21 19 20 20 18 18 20 19 20 17 18 20 20 20 22 22
18 18 18 19 19 20 21 21 19 19 24 24 25 25 24 24 26 25 24 23 22 23 22 25 26 28 30 24 25 20 18 17 18 18 20 19 19 21 21 20 22 22 21 22 22
18 19 19 20 20 20 21 19 19 22 24 26 25 26 24 25 25 26 24 22 24 24 22 22 23 27 29 25 23 22 21 21 20 20 20 20 19 21 21 23 22 23 23 22 22
19 19 19 20 20 20 20 19 22 23 26 25 25 23 22 25 25 25 24 23 24 24 22 22 25 28 28 28 27 26 22 25 20 21 22 20 18 21 22 23 23 23 23 22 21
20 20 21 21 21 21 20 19 23 25 25 24 22 24 22 22 24 24 22 25 26 26 26 24 22 25 28 29 28 26 26 24 22 21 21 21 23 21 21 21 22 23 23 22 21
20 20 23 23 22 22 19 23 25 25 25 24 24 23 22 22 24 24 23 24 24 25 25 24 23 22 27 26 25 25 24 25 24 23 21 20 20 19 22 20 18 20 23 23 23
19 19 24 23 22 23 22 24 25 25 25 25 25 24 22 24 23 22 21 24 25 25 22 22 22 20 22 26 27 26 25 24 21 22 24 22 22 23 22 20 19 19 21 22 23
18 20 23 24 21 21 24 25 25 24 24 24 24 24 24 23 22 22 22 24 25 24 22 21 20 19 22 23 24 26 26 26 24 22 22 23 21 22 20 21 21 26 23 23 22
18 20 24 24 24 24 24 24 24 24 25 24 24 24 23 22 20 21 23 25 25 25 24 24 22 20 16 18 20 22 24 25 25 21 22 22 21 21 21 19 19 27 26 23 22
18 21 22 22 22 23 23 23 24 24 25 24 23 24 22 20 19 18 20 23 24 24 24 22 20 22 22 24 24 23 24 25 23 23 24 25 24 18 19 19 21 21 22 24 22
18 20 22 23 24 23 21 23 23 23 23 22 22 23 21 20 21 18 20 20 22 23 21 20 19 21 22 24 24 24 24 25 25 25 25 22 20 20 19 18 16 16 20 22 22
18 19 20 22 23 22 23 23 23 23 23 23 23 21 21 22 22 23 23 23 22 23 21 20 18 18 19 22 23 22 23 24 23 23 20 18 18 18 16 15 18 16 16 16 19

GFSSW_850_temp_114.txt.gz
Temp
15 15 16 16 16 16 16 16 16 17 17 17 17 18 18 18 19 19 21 22 22 21 22 22 21 21 20 21 21 20 19 20 22 23 23 25 24 24 24 23 23 23 21 20 20
15 15 16 16 16 16 17 17 17 17 17 17 17 17 18 18 19 21 23 22 22 21 22 22 22 21 21 21 21 21 18 19 19 19 21 24 25 25 24 23 23 22 21 20 21
15 15 16 16 16 16 16 17 17 17 17 17 17 17 18 18 20 22 22 23 22 21 22 21 20 21 22 23 22 21 18 17 19 19 18 22 25 25 24 23 23 21 20 20 20
15 15 15 16 16 16 16 16 16 17 17 17 17 17 17 18 20 22 22 23 22 22 22 21 21 21 23 23 23 18 17 16 18 18 18 21 25 24 24 23 23 22 22 21 20
15 15 15 16 16 16 16 16 16 16 17 17 17 17 17 17 21 22 22 22 22 22 22 21 21 21 23 24 22 19 18 18 17 17 19 19 23 25 23 24 23 22 22 21 21
15 15 15 16 16 16 16 16 16 16 17 17 17 17 17 15 22 22 22 22 22 23 23 22 23 23 24 24 23 19 18 17 17 18 18 22 24 24 22 24 23 23 22 21 21
15 15 15 16 16 16 16 17 17 17 17 17 17 17 17 21 21 21 22 22 23 23 24 23 23 21 24 23 22 18 18 18 18 17 19 21 24 23 24 24 24 23 24 23 22
15 15 16 16 16 17 17 17 17 17 17 17 17 17 19 22 22 21 21 22 22 23 24 23 23 22 23 23 22 18 20 19 17 18 20 21 20 23 24 24 24 24 24 24 22
15 15 16 16 17 17 17 18 18 17 17 17 17 16 20 22 22 22 22 22 22 22 24 24 23 23 25 21 20 18 18 18 19 18 19 20 20 23 24 24 24 24 24 23 22
15 15 16 16 17 18 18 19 19 18 18 17 17 16 21 23 23 22 22 22 23 23 22 22 23 20 19 19 20 18 18 18 18 18 19 18 18 20 24 24 24 24 24 23 22
15 16 16 16 17 18 19 19 19 19 17 20 21 20 22 23 23 23 23 23 23 23 20 24 20 19 21 21 22 20 20 19 18 17 18 18 18 18 19 21 23 24 24 23 23
15 16 16 17 18 19 19 20 21 20 19 22 22 21 23 23 23 24 23 23 23 21 22 20 19 20 22 22 22 21 18 17 17 17 18 17 18 17 17 19 19 21 23 24 23
16 16 17 18 18 19 20 20 20 20 19 21 23 23 23 24 24 24 24 24 23 22 21 19 21 23 23 21 21 21 19 18 18 17 16 17 17 17 18 18 19 20 21 23 24
16 17 18 19 19 19 20 21 21 20 14 19 23 24 24 24 23 24 24 24 23 21 21 20 23 24 24 21 20 19 21 20 18 18 17 17 18 17 16 18 19 20 21 23 24
16 18 19 19 19 20 21 21 21 21 16 23 24 24 24 24 24 24 24 24 22 22 23 21 24 23 23 22 21 19 21 20 19 18 18 18 18 18 17 19 20 20 21 21 23
17 18 19 19 20 20 21 21 21 16 19 21 24 24 23 24 24 25 25 25 25 23 22 22 26 25 24 23 23 20 19 19 18 17 17 19 19 19 17 20 22 21 21 21 23
18 19 19 19 20 20 20 21 15 16 21 23 23 23 22 23 24 23 23 23 20 21 19 21 24 24 23 19 19 19 17 17 17 18 18 18 18 20 19 19 20 22 20 22 22
19 19 19 20 20 20 20 16 18 20 21 22 24 22 23 23 24 24 22 21 22 21 19 19 21 23 23 21 18 19 18 18 19 19 20 19 19 20 22 22 22 21 22 21 22
20 20 21 21 20 20 19 15 18 21 22 22 21 20 22 22 22 23 22 21 22 20 20 20 21 24 24 23 21 20 20 21 19 20 20 19 20 20 21 20 20 20 22 21 22
20 20 22 22 21 20 15 16 20 24 23 21 20 20 19 20 21 21 22 23 22 23 21 22 21 23 24 24 23 21 21 19 18 20 20 19 21 20 21 20 20 21 22 23 21
20 20 23 22 21 19 15 16 23 25 24 23 22 21 22 21 21 20 20 23 23 22 22 19 19 20 22 23 22 23 22 21 20 20 20 19 20 20 21 20 21 21 22 22 21
20 16 22 22 20 17 16 20 24 23 24 22 21 21 22 21 20 21 21 22 24 23 21 20 16 18 21 22 23 23 24 20 19 22 20 19 21 21 20 21 21 20 22 22 22
18 19 23 22 17 15 18 23 24 23 22 21 21 21 20 18 20 20 21 23 24 22 21 20 17 16 19 20 20 20 21 20 18 17 21 20 21 19 20 19 19 19 21 23 22
18 14 21 22 21 21 20 22 23 24 23 23 22 21 19 18 17 19 19 21 24 23 23 22 17 17 16 18 20 21 21 21 19 17 19 20 22 20 18 16 16 18 21 21 23
17 17 20 16 19 20 21 22 21 22 22 22 20 19 19 17 16 17 19 19 21 23 22 19 18 19 20 20 22 22 22 22 21 20 19 21 19 17 16 16 16 16 17 18 18
17 17 18 18 20 18 18 22 20 21 21 21 19 20 18 18 19 19 19 19 19 20 20 17 19 18 19 21 22 23 21 20 20 19 19 18 16 15 16 16 16 16 17 16 17
16 16 17 18 17 16 17 21 21 21 21 22 21 20 19 20 21 21 21 18 16 17 15 15 15 15 17 19 20 18 20 19 18 17 17 16 15 15 14 15 15 16 16 18 20

GFSSW_850_temp_117.txt.gz
Temp
15 15 15 16 16 16 16 16 16 17 17 17 17 17 18 18 19 20 21 22 22 21 21 21 21 20 20 20 20 20 18 19 21 22 22 24 23 22 22 21 21 21 20 19 19
15 15 15 16 16 16 16 16 16 16 17 17 17 17 18 18 20 21 22 22 22 22 22 21 21 20 20 20 20 19 17 20 19 19 21 24 23 23 22 22 20 20 19 19 18
15 15 15 15 15 16 16 16 16 16 17 17 17 17 18 18 20 22 22 22 22 22 22 21 20 20 20 21 21 19 18 19 20 19 19 19 23 23 22 22 20 19 20 19 19
15 15 15 15 16 15 16 16 16 16 16 17 17 17 18 18 20 21 22 23 22 22 21 21 20 21 20 20 21 19 18 17 18 18 18 19 20 23 23 23 22 21 20 19 19
15 15 15 15 15 16 16 16 16 16 16 17 17 17 18 18 21 22 22 22 22 22 22 21 20 21 20 21 21 20 18 17 17 17 18 19 21 23 23 22 22 21 20 20 19
15 15 15 15 16 16 16 16 16 17 16 17 17 17 17 17 21 21 21 22 22 22 22 22 21 21 21 22 22 20 18 18 18 18 18 21 22 22 22 22 21 20 19 19 20
15 15 15 16 16 16 16 17 17 17 17 17 17 17 17 21 21 21 21 21 21 22 23 22 22 22 22 22 20 18 18 18 18 18 17 20 20 22 22 22 21 20 20 19 19
15 15 16 16 16 17 17 17 17 17 17 17 17 17 20 21 21 22 21 21 22 21 21 22 22 22 22 21 20 20 17 19 17 17 19 19 20 21 22 22 20 20 20 19 20
15 15 16 16 17 17 18 18 18 18 18 17 17 17 21 21 22 22 22 21 22 21 21 22 22 22 22 19 18 18 18 17 18 16 18 19 20 21 23 23 22 22 21 20 20
15 15 16 17 17 18 19 19 19 19 18 17 17 17 22 22 22 22 22 21 22 22 22 22 22 18 17 17 19 18 17 18 17 17 17 19 20 21 22 23 23 22 21 20 20
16 16 16 17 18 20 20 20 19 19 18 20 20 20 22 23 22 22 22 22 22 22 20 22 19 18 20 20 22 20 19 18 17 17 17 18 17 18 19 21 22 22 22 21 21
16 16 17 18 19 20 20 20 19 18 18 21 21 21 23 22 22 23 22 22 21 19 20 19 18 20 21 21 21 19 19 18 18 18 17 17 17 17 17 18 20 19 21 21 21
16 17 18 19 20 20 20 19 19 19 17 21 22 22 23 23 23 23 23 23 21 20 20 19 21 21 22 20 20 19 20 18 18 17 17 17 18 17 17 18 19 20 20 21 22
17 18 19 19 20 20 20 20 20 20 14 19 22 23 24 23 23 24 24 24 22 20 20 20 21 22 20 20 19 19 20 19 17 18 18 17 18 17 17 17 18 20 20 21 21
17 18 19 19 20 20 20 20 20 20 16 22 23 24 24 23 24 24 24 24 22 22 21 20 22 21 21 21 20 20 20 19 18 17 18 17 17 18 17 18 18 19 21 21 21
18 18 19 20 20 20 20 21 21 16 19 21 23 23 23 23 23 24 23 24 24 22 20 20 24 22 21 22 21 20 19 18 18 17 17 18 17 17 17 18 19 20 22 20 21
19 19 20 20 20 20 20 21 16 16 20 22 22 22 22 21 23 22 22 21 20 20 19 20 22 20 20 18 19 19 18 16 18 18 18 18 18 18 20 20 21 22 22 21 21
20 20 20 20 20 20 20 16 17 20 19 21 20 21 22 20 22 23 21 20 21 20 18 19 19 20 22 19 18 18 19 17 18 18 20 18 19 20 22 21 22 23 24 22 20
20 20 21 21 21 20 20 15 18 20 21 21 20 18 19 20 22 21 21 19 22 20 20 19 20 22 22 20 20 19 18 20 19 19 19 19 20 21 21 20 20 21 23 22 21
21 21 22 21 21 20 15 15 17 21 23 21 20 19 20 20 20 20 20 22 22 22 19 20 20 21 24 21 21 19 19 19 17 19 19 19 19 20 19 19 18 19 21 21 21
21 21 21 21 21 19 15 15 19 23 23 21 21 20 20 20 20 19 19 22 21 22 20 19 18 21 21 21 20 20 20 18 17 17 19 19 20 20 19 19 18 19 21 21 21
20 17 21 20 19 13 14 16 23 22 23 21 21 21 20 19 18 19 20 22 23 21 21 19 15 18 21 20 19 21 21 18 18 21 17 18 20 17 17 17 19 20 21 21 23
18 19 20 21 16 14 16 19 23 22 21 22 20 20 18 17 19 19 19 22 22 22 21 20 16 15 16 18 19 19 20 20 15 15 18 19 20 17 16 16 17 20 20 22 22
18 14 20 20 19 17 18 20 22 23 21 21 20 19 18 16 15 18 18 20 21 22 22 19 15 16 15 18 18 20 20 20 16 16 17 18 17 16 16 16 15 16 19 20 20
17 16 17 14 16 15 18 20 21 21 21 20 19 18 18 17 17 17 18 17 20 21 20 17 17 18 19 16 20 21 19 19 18 17 19 16 16 15 16 15 15 15 16 18 18
16 15 17 16 16 15 14 20 20 20 21 20 19 18 18 18 18 18 18 18 18 17 17 14 16 17 19 20 21 19 19 18 17 17 16 16 16 14 15 15 15 14 15 17 17
15 14 14 16 14 15 16 18 19 20 21 21 20 17 19 19 20 19 18 16 15 16 15 14 14 14 17 17 20 18 16 17 16 16 16 15 15 14 15 13 12 13 14 14 15

GFSSW_850_temp_120.txt.gz
Temp
15 15 15 15 16 16 16 17 17 17 17 17 17 18 18 19 19 20 21 22 21 21 21 21 21 21 21 20 20 19 19 20 21 21 21 22 21 21 21 20 21 20 19 19 18
15 15 15 15 15 15 16 16 16 17 17 17 17 18 18 19 20 21 21 22 22 21 21 21 21 20 20 20 20 19 19 20 19 19 20 22 22 21 20 20 18 18 19 18 18
15 15 15 15 15 15 16 16 16 16 17 17 17 17 18 19 20 21 21 22 22 21 21 20 21 20 20 20 20 19 19 19 18 19 19 20 22 22 21 20 19 18 19 18 18
15 15 15 15 15 16 16 16 16 16 16 17 17 18 18 19 20 21 21 21 21 21 21 20 20 21 19 19 20 19 19 19 18 18 19 20 21 22 21 21 21 21 20 19 18
15 15 15 15 15 16 16 16 16 17 17 17 17 18 18 19 21 21 21 22 21 21 21 21 20 21 20 20 20 20 18 18 17 18 19 19 20 22 22 22 21 20 19 19 19
15 15 15 15 16 16 16 17 17 17 17 17 17 17 18 18 20 21 21 21 21 21 21 21 21 21 21 20 19 19 18 17 17 17 18 18 21 22 21 21 21 21 19 19 20
15 15 16 16 16 16 17 17 17 17 17 17 17 17 18 20 21 21 20 20 20 21 21 21 21 21 21 19 19 18 18 17 17 17 18 18 21 21 20 21 20 20 20 19 19
15 15 16 16 17 17 18 18 18 18 18 18 18 18 20 21 21 21 21 20 20 20 20 22 21 21 21 20 19 19 18 18 16 17 18 19 18 18 20 20 19 18 19 19 19
15 16 16 17 17 18 19 19 19 19 18 18 18 18 20 21 21 22 21 21 21 20 21 21 22 21 20 18 17 18 17 17 17 16 16 18 18 20 20 20 19 19 18 18 18
15 16 16 17 18 19 19 19 19 19 18 18 18 19 22 21 21 21 22 21 21 21 21 21 21 17 16 16 18 19 17 17 17 16 17 18 18 20 21 20 20 19 19 18 18
16 16 17 18 19 20 19 19 19 19 19 20 19 19 21 22 22 21 22 21 21 21 19 20 17 18 19 19 20 18 19 18 17 16 17 17 17 19 20 21 20 20 19 19 19
16 17 18 19 20 19 19 18 18 18 17 20 21 21 22 22 22 22 22 21 21 19 20 17 18 19 21 19 20 18 19 18 17 17 16 17 17 18 17 18 20 20 20 20 20
17 18 18 19 20 20 19 18 19 19 16 20 21 22 22 22 22 22 22 22 20 20 19 18 21 20 21 20 19 19 20 17 18 17 17 17 17 17 18 17 18 19 21 20 20
17 19 19 20 20 20 19 19 20 20 14 20 22 23 23 23 22 23 23 23 21 20 19 20 20 21 19 19 20 20 19 19 17 18 18 17 18 17 17 17 17 19 19 20 20
18 19 20 19 19 19 19 20 20 20 16 21 22 23 23 23 23 23 23 23 21 21 19 20 21 20 19 20 18 19 18 18 18 17 17 16 17 18 18 17 18 18 19 20 21
19 19 19 19 20 20 20 20 20 16 19 20 22 22 22 22 22 22 23 23 22 21 20 19 21 20 20 20 20 19 18 18 17 16 18 18 18 18 17 18 19 19 20 20 21
19 19 19 20 20 20 20 20 16 16 19 20 21 21 20 20 22 22 21 21 19 20 19 19 20 19 19 17 18 18 16 16 17 17 19 18 17 18 19 19 20 20 20 21 21
20 20 20 20 20 20 20 16 17 20 19 20 19 20 20 19 21 21 20 19 20 20 17 18 19 18 19 18 17 17 16 16 18 18 19 18 17 19 20 20 21 22 22 22 21
20 21 21 21 20 20 20 15 17 19 20 20 20 18 18 19 20 19 20 19 19 18 19 17 20 21 20 19 19 17 17 18 17 18 18 18 19 20 20 20 20 22 21 20 22
21 22 21 21 21 20 15 15 17 17 21 20 20 19 19 18 19 19 19 21 21 21 19 19 20 20 20 21 20 18 17 18 16 18 18 19 20 19 18 19 18 19 21 20 20
21 21 20 21 20 20 15 15 17 21 21 21 20 19 19 18 19 18 20 21 21 21 19 18 17 20 20 19 18 18 19 17 17 18 19 18 19 17 15 16 18 18 20 21 19
20 17 20 20 18 11 14 16 21 21 22 20 20 19 19 17 17 19 19 20 21 20 21 18 14 17 20 19 18 17 20 17 18 20 16 17 18 16 16 15 18 18 20 20 20
18 19 19 20 15 14 15 17 20 21 20 20 19 19 17 17 19 18 18 21 20 20 20 19 16 15 17 17 18 19 20 17 13 14 16 19 17 17 16 15 15 17 20 20 19
18 15 19 19 18 16 17 18 20 21 20 19 19 18 18 16 15 18 17 19 20 20 20 18 15 16 15 17 17 19 19 18 16 16 17 17 17 17 15 15 14 15 17 21 21
16 14 15 14 15 15 14 17 20 20 20 19 19 19 18 18 17 18 18 17 19 18 18 16 17 18 18 17 18 19 18 17 16 16 18 15 17 15 15 15 14 15 16 17 18
14 13 15 15 15 15 14 19 19 20 19 19 18 18 17 17 16 17 18 17 18 16 16 13 17 16 19 19 19 18 17 17 16 16 16 16 15 15 14 14 13 14 14 14 16
13 13 13 14 13 15 15 16 19 19 20 20 18 17 18 18 19 18 17 14 14 15 14 13 14 15 17 15 19 18 17 16 15 14 15 14 15 15 13 13 12 12 12 13 13

GFSSW_850_temp_123.txt.gz
Temp
15 15 15 15 16 16 16 16 16 17 17 17 17 18 18 19 19 20 21 21 21 21 21 21 21 21 21 20 20 20 22 22 22 23 23 22 22 21 20 20 20 19 19 18 19
15 15 15 15 15 16 16 16 16 16 17 17 17 18 19 19 20 21 21 21 21 21 21 21 21 21 21 20 20 19 21 21 19 21 23 23 22 21 21 21 19 18 18 19 19
15 15 15 15 15 16 16 16 16 16 17 17 18 18 19 19 20 20 21 21 21 21 21 21 21 21 21 21 21 20 20 19 19 20 22 23 23 22 21 22 20 20 18 18 17
15 15 15 15 16 16 16 16 17 17 17 17 18 18 19 19 22 20 20 21 21 20 20 20 20 21 22 22 20 21 20 19 18 19 21 22 21 22 22 23 20 19 18 18 17
15 15 15 16 16 16 17 17 17 17 17 17 18 18 19 19 20 20 21 21 20 20 20 20 21 21 22 22 21 22 19 18 18 19 20 20 21 22 22 21 19 19 18 18 18
15 15 16 16 16 17 17 17 17 17 17 17 18 18 19 20 20 20 21 21 20 20 21 20 21 21 22 22 21 19 19 18 17 18 20 21 22 23 21 20 19 19 19 18 18
15 16 16 16 17 17 18 18 18 18 18 18 18 18 19 19 20 20 20 20 20 20 21 21 21 22 21 21 19 19 19 19 17 17 19 19 22 23 21 20 20 19 19 18 18
15 16 16 17 18 18 18 18 19 19 18 18 18 19 20 21 20 20 20 20 20 20 21 21 21 22 21 20 21 21 20 20 17 16 17 20 22 22 21 21 20 20 19 19 18
15 16 17 18 18 19 19 19 19 19 19 19 19 20 20 21 21 21 20 20 20 20 20 21 21 21 20 23 22 21 20 20 18 16 17 20 22 20 20 22 21 20 20 19 19
16 16 17 18 19 19 19 19 19 19 19 20 20 20 21 20 21 21 21 21 20 20 20 21 20 23 22 23 23 22 20 19 18 16 17 19 19 20 20 20 20 21 20 20 19
16 16 18 19 19 19 20 19 19 19 20 20 20 20 21 21 21 21 21 21 20 21 22 20 23 23 24 24 23 24 20 20 18 16 17 17 19 20 20 21 21 21 20 20 20
17 17 18 19 19 19 19 18 18 19 18 20 21 22 22 22 21 21 21 21 21 22 21 22 22 23 22 22 23 22 21 19 18 17 17 17 19 19 20 20 21 21 21 20 21
17 18 19 19 20 19 19 19 19 19 19 21 21 22 22 22 22 22 21 21 22 22 22 22 23 22 23 23 22 22 22 19 20 18 18 17 18 18 17 17 19 21 21 21 21
18 19 19 20 20 20 20 20 20 20 22 22 23 22 22 22 23 22 22 22 22 22 22 23 22 23 23 23 23 22 22 21 19 20 20 18 19 18 17 18 19 20 20 21 21
18 19 19 20 20 20 19 20 20 20 20 23 23 23 22 23 22 22 23 23 23 23 23 23 23 22 22 24 22 22 22 21 20 20 20 18 19 20 18 19 20 20 20 21 21
19 19 20 19 20 20 20 20 20 22 20 23 23 23 23 22 22 22 23 23 22 23 22 23 21 23 24 22 23 21 21 20 20 20 20 22 20 22 20 21 21 21 20 20 21
19 19 19 20 20 20 20 20 21 21 21 22 22 22 22 22 23 23 23 23 23 22 22 23 22 21 22 21 22 21 21 21 20 21 22 20 20 22 22 22 23 22 20 20 20
20 20 20 20 20 20 20 21 20 21 21 22 21 22 23 22 22 22 23 23 22 22 22 22 22 21 21 23 22 22 23 23 21 21 22 20 21 24 23 22 22 23 20 21 21
20 21 20 21 20 20 19 21 21 21 22 22 22 22 22 22 22 22 22 23 23 22 22 22 22 22 22 22 23 21 22 22 23 22 23 23 23 23 22 22 21 22 21 21 21
21 21 21 21 20 20 21 18 20 19 21 22 22 21 22 21 22 22 22 23 23 22 21 22 22 22 21 22 20 22 22 21 22 22 21 24 23 23 20 19 20 21 21 21 21
21 21 20 20 20 20 21 20 20 20 20 22 21 22 21 21 21 21 21 23 22 22 21 22 21 22 22 22 22 21 22 21 22 22 23 24 23 19 18 17 20 21 22 23 20
20 21 20 20 20 13 20 19 19 22 21 22 21 21 21 20 21 21 21 22 21 21 23 20 22 23 22 22 21 22 24 23 24 23 22 23 23 19 17 17 18 19 20 21 21
18 19 19 20 21 20 18 20 20 22 22 22 21 20 19 20 21 20 21 21 20 22 22 22 21 22 22 23 22 23 22 21 21 22 23 24 24 20 18 17 17 17 18 20 20
17 20 18 19 17 19 19 20 21 20 20 19 20 20 20 20 19 20 21 21 20 19 19 20 20 21 22 22 22 22 22 21 22 23 24 25 22 20 18 17 16 16 17 18 18
16 16 15 19 18 17 17 18 21 22 20 19 20 21 21 20 20 20 20 21 21 18 19 21 21 20 21 21 21 21 21 21 21 21 22 23 21 19 18 17 15 15 15 15 16
13 13 14 15 14 16 15 20 21 21 21 21 21 20 20 20 20 20 20 19 20 21 20 19 21 19 21 21 21 21 21 21 20 19 19 20 19 18 15 14 14 13 13 13 14
13 13 12 14 16 18 19 19 20 20 20 20 21 20 20 20 18 17 17 14 16 18 19 19 20 20 21 19 21 21 21 22 20 18 19 18 19 17 16 14 12 12 12 12 13

GFSSW_850_temp_126.txt.gz
Temp
15 15 15 16 16 16 16 16 17 17 17 17 18 18 19 19 20 20 20 20 21 21 21 20 20 21 22 23 22 22 26 26 27 27 26 25 25 23 23 23 24 23 24 22 19
15 15 15 16 16 16 16 16 16 17 17 17 18 18 19 19 20 20 20 21 21 21 21 22 22 23 25 25 24 25 26 25 22 26 27 26 24 24 25 24 23 23 22 20 19
15 15 15 16 16 16 16 16 17 17 17 17 18 18 19 20 20 21 20 21 21 21 21 22 23 24 25 25 25 24 24 20 19 24 26 25 24 23 25 26 24 22 21 20 20
15 15 16 16 16 16 16 17 17 17 17 17 18 18 19 20 25 19 20 21 20 21 21 22 23 25 26 26 25 24 23 22 19 23 25 25 25 22 25 25 24 23 22 21 21
15 15 16 16 16 17 17 17 17 17 17 17 18 19 20 21 21 21 21 21 21 21 22 23 24 25 26 26 25 25 23 20 19 21 23 23 25 24 24 23 23 22 22 21 21
15 16 16 16 17 17 18 18 18 18 18 18 18 19 19 23 20 21 20 21 20 21 22 23 24 24 25 25 25 23 22 19 18 19 22 25 25 25 24 23 23 22 22 22 22
15 16 16 17 17 18 18 18 19 18 18 18 18 20 20 20 20 20 19 20 20 21 22 22 23 24 25 25 23 22 22 21 18 17 22 22 24 26 24 23 23 23 23 22 22
16 16 17 17 18 18 19 19 19 19 19 19 20 20 21 20 20 20 20 20 21 21 22 22 22 24 25 24 24 24 25 23 21 19 20 22 25 26 24 23 24 24 23 22 22
16 16 17 18 19 19 19 20 20 20 20 20 20 20 22 21 20 20 20 21 20 21 21 22 23 25 25 27 27 25 25 24 22 20 19 22 24 25 24 24 24 24 23 23 22
16 17 18 19 19 19 20 20 20 20 20 21 21 21 22 22 21 20 20 21 22 22 22 22 24 27 27 28 27 26 25 24 22 20 19 20 22 24 24 24 25 24 24 23 23
17 17 18 19 19 20 20 21 21 20 19 22 23 23 22 21 21 21 21 22 22 24 26 24 25 26 28 28 27 27 25 24 22 20 17 17 23 23 23 24 22 25 25 24 24
17 18 19 19 19 20 20 20 19 19 24 21 21 22 22 22 23 22 21 24 24 25 26 25 26 27 27 27 26 26 25 23 22 20 17 16 21 21 22 23 21 24 25 24 24
18 19 19 19 20 20 19 19 20 19 24 24 23 23 23 23 24 23 23 24 25 25 26 26 27 26 26 26 26 26 26 25 24 20 19 17 19 19 22 23 23 24 25 25 25
18 19 19 20 20 20 20 20 20 20 26 25 26 24 23 24 25 23 23 24 25 26 26 27 26 26 26 26 27 26 26 25 23 22 21 18 20 19 23 22 22 23 24 25 25
19 19 19 20 20 20 20 20 21 20 24 26 26 24 24 25 25 24 23 24 26 25 26 26 26 26 26 27 27 26 26 25 25 25 24 20 21 22 22 20 21 23 24 25 25
19 19 19 20 20 20 20 20 20 24 22 25 26 26 26 25 25 24 24 24 25 26 26 27 25 26 27 27 27 26 25 25 24 26 24 25 25 23 22 22 21 24 24 24 25
20 19 19 20 21 20 20 20 25 25 25 25 26 27 26 26 26 26 25 26 26 25 25 26 26 27 26 26 26 26 25 26 23 24 24 26 25 26 25 25 21 24 25 24 24
20 20 20 20 20 20 20 25 23 24 25 26 26 26 26 26 26 26 26 26 26 26 26 26 25 26 27 27 27 26 27 27 23 24 26 25 24 25 24 23 25 26 25 24 24
20 20 20 21 21 20 22 25 24 25 25 25 26 26 26 26 26 26 26 26 26 26 25 26 26 26 26 26 27 26 25 28 27 27 27 27 27 26 25 23 24 25 26 25 24
20 19 20 21 21 20 25 21 25 25 25 26 25 25 25 25 25 26 25 26 26 26 26 26 25 26 25 25 25 26 28 26 27 23 23 26 26 26 24 22 23 24 26 24 24
20 22 21 21 21 23 25 25 25 24 24 25 25 25 25 25 25 25 25 26 26 26 25 27 26 25 25 25 26 25 26 26 26 24 21 23 25 24 23 22 22 23 23 23 24
20 24 20 21 24 24 25 25 22 25 24 25 25 25 25 24 25 25 25 25 24 25 26 26 27 26 26 27 26 26 27 26 26 23 26 23 24 23 21 22 21 22 22 22 22
19 21 20 20 25 25 24 25 24 26 26 25 25 25 25 25 24 24 24 24 24 26 25 26 26 25 25 26 26 26 27 27 27 25 24 24 24 23 22 22 21 21 21 22 23
17 23 21 21 21 24 24 25 25 24 25 24 25 25 25 24 25 24 25 24 23 24 21 22 26 25 22 22 26 25 26 26 27 27 26 25 26 24 22 21 20 20 21 22 21
17 22 18 24 24 24 23 24 25 24 25 24 24 25 24 24 24 24 24 25 24 22 23 25 24 24 25 25 25 26 26 26 26 26 25 26 26 24 21 18 17 15 15 17 17
16 17 18 21 20 22 18 24 24 25 25 24 24 25 25 23 24 23 24 24 24 24 24 25 23 24 24 25 25 25 25 25 25 25 25 25 25 24 19 16 16 14 13 14 14
13 13 14 20 22 23 24 24 24 25 24 25 25 24 24 24 23 22 22 22 22 23 23 23 24 23 23 24 24 24 25 25 26 25 25 25 25 23 21 17 13 14 13 13 13

GFSSW_850_temp_129.txt.gz
Temp
15 15 15 15 16 16 16 16 16 17 17 18 18 19 19 20 20 21 22 22 21 22 22 22 23 24 25 27 26 26 24 24 29 28 28 28 28 26 26 26 27 26 25 24 22
15 15 15 16 16 16 16 16 17 17 17 18 18 19 19 20 21 21 22 21 22 22 22 24 25 25 27 26 27 28 24 21 25 29 29 28 28 27 27 27 26 26 25 23 22
15 16 16 16 16 16 17 17 17 17 17 18 18 19 20 21 19 24 21 22 22 22 22 25 26 27 27 26 24 28 25 23 22 26 29 27 27 27 28 28 26 26 24 23 23
15 16 16 16 16 17 17 17 17 17 17 18 18 19 20 21 26 21 21 22 22 21 23 25 26 27 26 21 28 26 25 23 21 25 28 27 26 24 27 28 26 25 24 23 23
16 16 16 16 17 17 17 18 18 18 18 18 19 20 20 21 23 21 22 22 22 22 24 26 27 27 25 28 27 27 25 23 22 25 26 27 26 24 27 26 25 25 24 24 24
16 16 16 17 17 18 18 18 18 18 18 18 19 20 20 25 21 21 21 21 23 24 25 26 28 27 28 27 27 27 25 23 21 22 25 27 27 27 26 26 25 25 25 25 24
16 16 17 17 18 19 19 19 19 19 19 19 20 21 22 22 21 21 22 23 23 24 25 26 27 27 28 28 26 26 24 24 22 19 25 25 25 26 26 26 25 25 25 25 24
16 17 17 18 19 19 19 20 20 20 20 20 21 22 23 21 22 22 23 23 23 24 25 25 25 27 28 26 27 27 26 22 22 21 22 24 25 26 26 26 26 26 26 25 24
16 17 18 19 19 20 20 20 20 21 21 21 21 20 24 22 22 23 23 24 24 24 24 24 25 28 28 29 28 28 25 25 23 23 22 23 26 26 27 27 26 27 26 25 25
17 18 19 19 20 20 20 21 21 22 22 22 22 23 23 25 23 23 23 24 24 25 25 25 26 29 30 29 26 20 26 27 25 24 23 23 25 19 27 26 26 26 26 25 25
17 18 19 20 20 20 21 21 21 22 21 25 26 25 25 24 23 24 24 24 25 26 27 27 28 28 31 30 26 29 27 26 25 23 23 21 21 24 26 26 24 25 27 26 26
18 19 19 20 20 20 22 23 22 22 26 24 24 25 24 25 25 24 24 26 26 27 28 28 28 30 30 29 29 29 29 27 25 24 22 18 20 20 25 25 24 26 26 26 26
18 19 19 20 20 20 22 21 21 22 26 26 26 26 25 25 26 25 25 26 28 28 28 28 30 30 29 29 29 29 27 20 27 23 23 19 19 18 23 25 26 24 25 26 27
19 19 19 20 21 22 23 21 21 21 27 27 28 26 26 27 27 26 26 27 28 28 29 29 30 28 28 29 30 29 30 28 27 24 22 22 19 18 21 24 24 25 25 25 27
19 19 20 20 21 23 22 22 22 22 26 28 28 26 27 28 27 26 26 26 28 28 28 29 28 28 28 29 30 28 27 29 28 27 21 22 19 20 22 22 24 25 25 26 28
19 19 20 20 21 22 21 22 22 26 25 28 28 28 29 28 28 26 26 26 27 28 28 29 28 29 29 29 29 30 29 29 28 28 27 24 23 19 24 26 26 26 26 26 28
20 20 20 20 23 22 22 23 26 27 28 27 29 29 29 28 28 28 28 28 28 27 27 28 29 29 29 28 29 29 28 28 27 28 27 19 23 23 25 26 27 27 26 26 27
20 20 20 20 20 21 22 27 26 27 28 29 28 29 29 29 28 28 28 28 28 28 29 28 27 29 29 29 29 29 29 28 23 26 24 24 25 19 27 27 24 24 26 26 26
20 21 20 21 21 21 23 27 28 28 28 28 28 28 28 28 28 28 28 29 29 29 27 28 28 30 29 30 30 29 29 24 28 28 27 18 27 27 26 26 26 24 25 26 26
20 22 23 21 21 22 26 25 28 28 28 28 27 28 27 28 27 28 28 28 28 28 28 28 27 29 29 29 29 27 21 27 29 25 24 26 21 25 26 26 25 26 27 27 25
21 24 23 22 21 24 27 28 28 27 27 28 27 27 28 28 28 28 27 28 28 28 28 29 28 23 26 28 28 29 26 26 28 28 24 24 22 28 26 25 24 24 24 23 25
20 26 22 22 25 26 28 28 25 28 27 28 28 28 27 27 27 27 27 28 26 27 27 29 28 27 26 25 22 18 21 22 26 23 19 17 23 27 26 25 25 22 22 19 19
21 25 23 23 25 28 28 27 27 28 28 28 28 28 28 27 26 27 27 26 26 27 27 27 27 27 26 26 26 22 22 19 18 21 22 22 24 27 26 26 24 23 22 22 20
19 25 25 24 25 27 28 27 27 27 27 27 27 27 27 26 27 26 27 27 26 26 24 25 27 27 23 21 24 24 25 26 22 19 19 22 19 25 25 24 24 21 21 22 22
19 24 25 26 26 27 27 27 27 27 27 27 27 27 27 26 26 26 27 27 27 24 25 27 25 27 26 26 25 24 20 21 28 29 25 23 23 25 24 22 20 17 19 18 17
18 20 21 23 25 25 23 26 26 27 27 27 26 27 27 25 26 25 26 26 26 27 26 27 25 26 26 27 28 27 27 29 28 28 21 20 19 21 21 19 18 16 15 15 15
17 17 17 21 24 25 25 26 26 27 27 27 27 26 26 26 25 25 25 26 26 25 25 26 25 25 25 26 26 26 27 28 27 27 26 26 23 24 23 18 18 16 14 14 13